Observation data for Romero 11SSW on 01/20/2019      Previous  Date  Next       Current Mesonet Observations  Soil Data  Daily Summary Page  Observations in Plain Language
KBR1 200600Z 06006KT M02/M04 A3021 RMK A01 T10161040  RH  084%=      5-min Rain = 0
KBR1 200601Z 06006KT M02/M04 A3021 RMK A01 T10151040  RH  083%=      5-min Rain = 0
KBR1 200602Z 06006KT M02/M04 A3021 RMK A01 T10151040  RH  083%=      5-min Rain = 0
KBR1 200603Z 07005KT M02/M04 A3021 RMK A01 T10151040  RH  083%=      5-min Rain = 0
KBR1 200604Z 07006KT M02/M04 A3021 RMK A01 T10161040  RH  083%=      5-min Rain = 0
KBR1 200605Z 07006KT M02/M04 A3021 RMK A01 T10151040  RH  083%=      5-min Rain = 0
KBR1 200606Z 06006KT M02/M04 A3021 RMK A01 T10151040  RH  083%=      5-min Rain = 0
KBR1 200607Z 06006KT M02/M04 A3021 RMK A01 T10161040  RH  083%=      5-min Rain = 0
KBR1 200608Z 06006KT M02/M04 A3021 RMK A01 T10161040  RH  083%=      5-min Rain = 0
KBR1 200609Z 06006KT M02/M04 A3021 RMK A01 T10161040  RH  084%=      5-min Rain = 0
KBR1 200610Z 06006KT M02/M04 A3021 RMK A01 T10161040  RH  084%=      5-min Rain = 0
KBR1 200611Z 06006KT M02/M04 A3021 RMK A01 T10171040  RH  084%=      5-min Rain = 0
KBR1 200612Z 06006KT M02/M04 A3021 RMK A01 T10171040  RH  084%=      5-min Rain = 0
KBR1 200613Z 06006KT M02/M04 A3021 RMK A01 T10171040  RH  084%=      5-min Rain = 0
KBR1 200614Z 06006KT M02/M04 A3022 RMK A01 T10171040  RH  084%=      5-min Rain = 0
KBR1 200615Z 06006KT M02/M04 A3022 RMK A01 T10161040  RH  084%=      5-min Rain = 0
KBR1 200616Z 06006KT M02/M04 A3022 RMK A01 T10161040  RH  084%=      5-min Rain = 0
KBR1 200617Z 06005KT M02/M04 A3022 RMK A01 T10161040  RH  084%=      5-min Rain = 0
KBR1 200618Z 06005KT M02/M04 A3022 RMK A01 T10161040  RH  084%=      5-min Rain = 0
KBR1 200619Z 07005KT M02/M04 A3022 RMK A01 T10161041  RH  083%=      5-min Rain = 0
KBR1 200620Z 06005KT M02/M04 A3022 RMK A01 T10171041  RH  084%=      5-min Rain = 0
KBR1 200621Z 06006KT M02/M04 A3022 RMK A01 T10171041  RH  084%=      5-min Rain = 0
KBR1 200622Z 06005KT M02/M04 A3022 RMK A01 T10171041  RH  084%=      5-min Rain = 0
KBR1 200623Z 06005KT M02/M04 A3022 RMK A01 T10171041  RH  084%=      5-min Rain = 0
KBR1 200624Z 06006KT M02/M04 A3022 RMK A01 T10181042  RH  084%=      5-min Rain = 0
KBR1 200625Z 06007KT M02/M04 A3022 RMK A01 T10181042  RH  084%=      5-min Rain = 0
KBR1 200626Z 06006KT M02/M04 A3022 RMK A01 T10181041  RH  084%=      5-min Rain = 0
KBR1 200627Z 07006KT M02/M04 A3022 RMK A01 T10181041  RH  084%=      5-min Rain = 0
KBR1 200628Z 07007KT M02/M04 A3022 RMK A01 T10171041  RH  084%=      5-min Rain = 0
KBR1 200629Z 07007KT M02/M04 A3022 RMK A01 T10171041  RH  084%=      5-min Rain = 0
KBR1 200630Z 07007KT M02/M04 A3021 RMK A01 T10171041  RH  084%=      5-min Rain = 0
KBR1 200631Z 07006KT M02/M04 A3021 RMK A01 T10171041  RH  084%=      5-min Rain = 0
KBR1 200632Z 07006KT M02/M04 A3021 RMK A01 T10171041  RH  084%=      5-min Rain = 0
KBR1 200633Z 07006KT M02/M04 A3021 RMK A01 T10181042  RH  083%=      5-min Rain = 0
KBR1 200634Z 07006KT M02/M04 A3021 RMK A01 T10191043  RH  084%=      5-min Rain = 0
KBR1 200635Z 07006KT M02/M04 A3022 RMK A01 T10191043  RH  084%=      5-min Rain = 0
KBR1 200636Z 07006KT M02/M04 A3022 RMK A01 T10201043  RH  084%=      5-min Rain = 0
KBR1 200637Z 07006KT M02/M04 A3022 RMK A01 T10201043  RH  085%=      5-min Rain = 0
KBR1 200638Z 07006KT M02/M04 A3022 RMK A01 T10201042  RH  085%=      5-min Rain = 0
KBR1 200639Z 07006KT M02/M04 A3022 RMK A01 T10191042  RH  085%=      5-min Rain = 0
KBR1 200640Z 07006KT M02/M04 A3022 RMK A01 T10191042  RH  084%=      5-min Rain = 0
KBR1 200641Z 07006KT M02/M04 A3022 RMK A01 T10201043  RH  084%=      5-min Rain = 0
KBR1 200642Z 07006KT M02/M04 A3022 RMK A01 T10221044  RH  085%=      5-min Rain = 0
KBR1 200643Z 07005KT M02/M04 A3022 RMK A01 T10221043  RH  085%=      5-min Rain = 0
KBR1 200644Z 07005KT M02/M04 A3022 RMK A01 T10221043  RH  086%=      5-min Rain = 0
KBR1 200645Z 07005KT M02/M04 A3022 RMK A01 T10221043  RH  086%=      5-min Rain = 0
KBR1 200646Z 07005KT M02/M04 A3022 RMK A01 T10221043  RH  085%=      5-min Rain = 0
KBR1 200647Z 07006KT M02/M04 A3022 RMK A01 T10221043  RH  085%=      5-min Rain = 0
KBR1 200648Z 07006KT M02/M04 A3022 RMK A01 T10221043  RH  086%=      5-min Rain = 0
KBR1 200649Z 07005KT M02/M04 A3022 RMK A01 T10211042  RH  086%=      5-min Rain = 0
KBR1 200650Z 07005KT M02/M04 A3022 RMK A01 T10211042  RH  085%=      5-min Rain = 0
KBR1 200651Z 07005KT M02/M04 A3022 RMK A01 T10201042  RH  085%=      5-min Rain = 0
KBR1 200652Z 07005KT M02/M04 A3022 RMK A01 T10201041  RH  085%=      5-min Rain = 0
KBR1 200653Z 07005KT M02/M04 A3022 RMK A01 T10201042  RH  085%=      5-min Rain = 0
KBR1 200654Z 06005KT M02/M04 A3022 RMK A01 T10201042  RH  085%=      5-min Rain = 0
KBR1 200655Z 07005KT M02/M04 A3022 RMK A01 T10211043  RH  085%=      5-min Rain = 0
KBR1 200656Z 06005KT M02/M04 A3022 RMK A01 T10211042  RH  085%=      5-min Rain = 0
KBR1 200657Z 06005KT M02/M04 A3022 RMK A01 T10211042  RH  086%=      5-min Rain = 0
KBR1 200658Z 06006KT M02/M04 A3022 RMK A01 T10211042  RH  086%=      5-min Rain = 0
KBR1 200659Z 06006KT M02/M04 A3022 RMK A01 T10211043  RH  085%=      5-min Rain = 0
KBR1 200700Z 06006KT M02/M04 A3022 RMK A01 T10211043  RH  085%=      5-min Rain = 0
KBR1 200701Z 07006KT M02/M04 A3022 RMK A01 T10221044  RH  085%=      5-min Rain = 0
KBR1 200702Z 07006KT M02/M04 A3022 RMK A01 T10221043  RH  085%=      5-min Rain = 0
KBR1 200703Z 07005KT M02/M04 A3022 RMK A01 T10221043  RH  086%=      5-min Rain = 0
KBR1 200704Z 07005KT M02/M04 A3022 RMK A01 T10221042  RH  086%=      5-min Rain = 0
KBR1 200705Z 07006KT M02/M04 A3022 RMK A01 T10221042  RH  086%=      5-min Rain = 0
KBR1 200706Z 07006KT M02/M04 A3022 RMK A01 T10221042  RH  086%=      5-min Rain = 0
KBR1 200707Z 07006KT M02/M04 A3022 RMK A01 T10221042  RH  086%=      5-min Rain = 0
KBR1 200708Z 07006KT M02/M04 A3022 RMK A01 T10211041  RH  086%=      5-min Rain = 0
KBR1 200709Z 06006KT M02/M04 A3022 RMK A01 T10211042  RH  086%=      5-min Rain = 0
KBR1 200710Z 06006KT M02/M04 A3022 RMK A01 T10221042  RH  086%=      5-min Rain = 0
KBR1 200711Z 06006KT M02/M04 A3022 RMK A01 T10211041  RH  086%=      5-min Rain = 0
KBR1 200712Z 06005KT M02/M04 A3022 RMK A01 T10211041  RH  086%=      5-min Rain = 0
KBR1 200713Z 05006KT M02/M04 A3022 RMK A01 T10211041  RH  086%=      5-min Rain = 0
KBR1 200714Z 06006KT M02/M04 A3022 RMK A01 T10211042  RH  085%=      5-min Rain = 0
KBR1 200715Z 05006KT M02/M04 A3022 RMK A01 T10211042  RH  085%=      5-min Rain = 0
KBR1 200716Z 05006KT M02/M04 A3022 RMK A01 T10211043  RH  085%=      5-min Rain = 0
KBR1 200717Z 06006KT M02/M04 A3022 RMK A01 T10211043  RH  085%=      5-min Rain = 0
KBR1 200718Z 06006KT M02/M04 A3022 RMK A01 T10221043  RH  085%=      5-min Rain = 0
KBR1 200719Z 06005KT M02/M04 A3022 RMK A01 T10221043  RH  085%=      5-min Rain = 0
KBR1 200720Z 07005KT M02/M04 A3022 RMK A01 T10221044  RH  085%=      5-min Rain = 0
KBR1 200721Z 07005KT M02/M04 A3022 RMK A01 T10221044  RH  085%=      5-min Rain = 0
KBR1 200722Z 06005KT M02/M04 A3022 RMK A01 T10221044  RH  085%=      5-min Rain = 0
KBR1 200723Z 06005KT M02/M04 A3022 RMK A01 T10221043  RH  085%=      5-min Rain = 0
KBR1 200724Z 06005KT M02/M04 A3022 RMK A01 T10221044  RH  085%=      5-min Rain = 0
KBR1 200725Z 06005KT M02/M04 A3022 RMK A01 T10221044  RH  085%=      5-min Rain = 0
KBR1 200726Z 05005KT M02/M04 A3022 RMK A01 T10221044  RH  085%=      5-min Rain = 0
KBR1 200727Z 06005KT M02/M04 A3022 RMK A01 T10221043  RH  085%=      5-min Rain = 0
KBR1 200728Z 05006KT M02/M04 A3022 RMK A01 T10221044  RH  085%=      5-min Rain = 0
KBR1 200729Z 05006KT M02/M04 A3022 RMK A01 T10231044  RH  085%=      5-min Rain = 0
KBR1 200730Z 06006KT M02/M05 A3022 RMK A01 T10231045  RH  085%=      5-min Rain = 0
KBR1 200731Z 06006KT M02/M05 A3022 RMK A01 T10241046  RH  085%=      5-min Rain = 0
KBR1 200732Z 05006KT M03/M05 A3022 RMK A01 T10251046  RH  086%=      5-min Rain = 0
KBR1 200733Z 05006KT M03/M05 A3022 RMK A01 T10261046  RH  086%=      5-min Rain = 0
KBR1 200734Z 06005KT M03/M05 A3022 RMK A01 T10261045  RH  087%=      5-min Rain = 0
KBR1 200735Z 07005KT M03/M04 A3022 RMK A01 T10251044  RH  087%=      5-min Rain = 0
KBR1 200736Z 07005KT M02/M04 A3022 RMK A01 T10231042  RH  087%=      5-min Rain = 0
KBR1 200737Z 06004KT M02/M04 A3022 RMK A01 T10231043  RH  086%=      5-min Rain = 0
KBR1 200738Z 07004KT M02/M04 A3022 RMK A01 T10221042  RH  086%=      5-min Rain = 0
KBR1 200739Z 06005KT M02/M04 A3022 RMK A01 T10221042  RH  086%=      5-min Rain = 0
KBR1 200740Z 06005KT M02/M04 A3021 RMK A01 T10211042  RH  086%=      5-min Rain = 0
KBR1 200741Z 06005KT M02/M04 A3021 RMK A01 T10211042  RH  086%=      5-min Rain = 0
KBR1 200742Z 06005KT M02/M04 A3021 RMK A01 T10211043  RH  085%=      5-min Rain = 0
KBR1 200743Z 06005KT M02/M04 A3021 RMK A01 T10221043  RH  085%=      5-min Rain = 0
KBR1 200744Z 06005KT M02/M04 A3021 RMK A01 T10221043  RH  086%=      5-min Rain = 0
KBR1 200745Z 07005KT M02/M04 A3021 RMK A01 T10221043  RH  086%=      5-min Rain = 0
KBR1 200746Z 07005KT M02/M04 A3021 RMK A01 T10221042  RH  086%=      5-min Rain = 0
KBR1 200747Z 07005KT M02/M04 A3021 RMK A01 T10221042  RH  086%=      5-min Rain = 0
KBR1 200748Z 08005KT M02/M04 A3021 RMK A01 T10211042  RH  086%=      5-min Rain = 0
KBR1 200749Z 07005KT M02/M04 A3021 RMK A01 T10211042  RH  086%=      5-min Rain = 0
KBR1 200750Z 07005KT M02/M04 A3021 RMK A01 T10201041  RH  086%=      5-min Rain = 0
KBR1 200751Z 07005KT M02/M04 A3021 RMK A01 T10211042  RH  086%=      5-min Rain = 0
KBR1 200752Z 07005KT M02/M04 A3021 RMK A01 T10211042  RH  086%=      5-min Rain = 0
KBR1 200753Z 07005KT M02/M04 A3021 RMK A01 T10211042  RH  086%=      5-min Rain = 0
KBR1 200754Z 07006KT M02/M04 A3021 RMK A01 T10211041  RH  086%=      5-min Rain = 0
KBR1 200755Z 07006KT M02/M04 A3021 RMK A01 T10211041  RH  086%=      5-min Rain = 0
KBR1 200756Z 07006KT M02/M04 A3021 RMK A01 T10211041  RH  086%=      5-min Rain = 0
KBR1 200757Z 08006KT M02/M04 A3021 RMK A01 T10211040  RH  087%=      5-min Rain = 0
KBR1 200758Z 08005KT M02/M04 A3021 RMK A01 T10191038  RH  087%=      5-min Rain = 0
KBR1 200759Z 07005KT M02/M04 A3021 RMK A01 T10181037  RH  087%=      5-min Rain = 0
KBR1 200800Z 07005KT M02/M04 A3021 RMK A01 T10171038  RH  086%=      5-min Rain = 0
KBR1 200801Z 07005KT M02/M04 A3021 RMK A01 T10171038  RH  085%=      5-min Rain = 0
KBR1 200802Z 06005KT M02/M04 A3021 RMK A01 T10171039  RH  085%=      5-min Rain = 0
KBR1 200803Z 07005KT M02/M04 A3021 RMK A01 T10181040  RH  085%=      5-min Rain = 0
KBR1 200804Z 07006KT M02/M04 A3021 RMK A01 T10181040  RH  085%=      5-min Rain = 0
KBR1 200805Z 07006KT M02/M04 A3021 RMK A01 T10181039  RH  085%=      5-min Rain = 0
KBR1 200806Z 08007KT M02/M04 A3021 RMK A01 T10181040  RH  085%=      5-min Rain = 0
KBR1 200807Z 08007KT M02/M04 A3021 RMK A01 T10191040  RH  085%=      5-min Rain = 0
KBR1 200808Z 08006KT M02/M04 A3021 RMK A01 T10191040  RH  085%=      5-min Rain = 0
KBR1 200809Z 07006KT M02/M04 A3021 RMK A01 T10191040  RH  085%=      5-min Rain = 0
KBR1 200810Z 07006KT M02/M04 A3021 RMK A01 T10181039  RH  086%=      5-min Rain = 0
KBR1 200811Z 07006KT M02/M04 A3021 RMK A01 T10171039  RH  085%=      5-min Rain = 0
KBR1 200812Z 07006KT M02/M04 A3021 RMK A01 T10171039  RH  085%=      5-min Rain = 0
KBR1 200813Z 07006KT M02/M04 A302 RMK A01 T10171038  RH  085%=      5-min Rain = 0
KBR1 200814Z 07006KT M02/M04 A302 RMK A01 T10171039  RH  085%=      5-min Rain = 0
KBR1 200815Z 07006KT M02/M04 A302 RMK A01 T10171040  RH  085%=      5-min Rain = 0
KBR1 200816Z 07006KT M02/M04 A302 RMK A01 T10181040  RH  085%=      5-min Rain = 0
KBR1 200817Z 07006KT M02/M04 A302 RMK A01 T10191040  RH  085%=      5-min Rain = 0
KBR1 200818Z 07005KT M02/M04 A302 RMK A01 T10191040  RH  085%=      5-min Rain = 0
KBR1 200819Z 06005KT M02/M04 A3021 RMK A01 T10191040  RH  086%=      5-min Rain = 0
KBR1 200820Z 06005KT M02/M04 A3021 RMK A01 T10191040  RH  086%=      5-min Rain = 0
KBR1 200821Z 07005KT M02/M04 A3021 RMK A01 T10201041  RH  086%=      5-min Rain = 0
KBR1 200822Z 07005KT M02/M04 A3021 RMK A01 T10201041  RH  086%=      5-min Rain = 0
KBR1 200823Z 07005KT M02/M04 A3021 RMK A01 T10201041  RH  086%=      5-min Rain = 0
KBR1 200824Z 07005KT M02/M04 A3021 RMK A01 T10211041  RH  086%=      5-min Rain = 0
KBR1 200825Z 07005KT M02/M04 A3021 RMK A01 T10211041  RH  086%=      5-min Rain = 0
KBR1 200826Z 07005KT M02/M04 A3021 RMK A01 T10211041  RH  086%=      5-min Rain = 0
KBR1 200827Z 06005KT M02/M04 A3021 RMK A01 T10221042  RH  086%=      5-min Rain = 0
KBR1 200828Z 06005KT M02/M04 A302 RMK A01 T10221042  RH  086%=      5-min Rain = 0
KBR1 200829Z 06005KT M02/M04 A302 RMK A01 T10231043  RH  086%=      5-min Rain = 0
KBR1 200830Z 06005KT M02/M04 A302 RMK A01 T10231042  RH  087%=      5-min Rain = 0
KBR1 200831Z 06005KT M02/M04 A302 RMK A01 T10231043  RH  087%=      5-min Rain = 0
KBR1 200832Z 06005KT M02/M04 A302 RMK A01 T10241043  RH  087%=      5-min Rain = 0
KBR1 200833Z 06005KT M02/M04 A302 RMK A01 T10241043  RH  087%=      5-min Rain = 0
KBR1 200834Z 06005KT M03/M04 A302 RMK A01 T10251044  RH  087%=      5-min Rain = 0
KBR1 200835Z 06004KT M03/M04 A302 RMK A01 T10251043  RH  087%=      5-min Rain = 0
KBR1 200836Z 06005KT M03/M04 A302 RMK A01 T10251043  RH  087%=      5-min Rain = 0
KBR1 200837Z 07005KT M03/M04 A302 RMK A01 T10251043  RH  087%=      5-min Rain = 0
KBR1 200838Z 06005KT M03/M04 A302 RMK A01 T10251043  RH  087%=      5-min Rain = 0
KBR1 200839Z 06005KT M03/M04 A302 RMK A01 T10251043  RH  087%=      5-min Rain = 0
KBR1 200840Z 06004KT M03/M04 A302 RMK A01 T10251044  RH  087%=      5-min Rain = 0
KBR1 200841Z 05005KT M03/M04 A302 RMK A01 T10251044  RH  087%=      5-min Rain = 0
KBR1 200842Z 05006KT M03/M04 A302 RMK A01 T10261044  RH  087%=      5-min Rain = 0
KBR1 200843Z 05006KT M03/M05 A302 RMK A01 T10271045  RH  087%=      5-min Rain = 0
KBR1 200844Z 05006KT M03/M05 A302 RMK A01 T10271045  RH  087%=      5-min Rain = 0
KBR1 200845Z 05006KT M03/M05 A302 RMK A01 T10281046  RH  088%=      5-min Rain = 0
KBR1 200846Z 05006KT M03/M05 A302 RMK A01 T10281045  RH  088%=      5-min Rain = 0
KBR1 200847Z 05006KT M03/M05 A302 RMK A01 T10281045  RH  088%=      5-min Rain = 0
KBR1 200848Z 05006KT M03/M04 A302 RMK A01 T10281044  RH  089%=      5-min Rain = 0
KBR1 200849Z 05006KT M03/M04 A302 RMK A01 T10271043  RH  089%=      5-min Rain = 0
KBR1 200850Z 05006KT M03/M04 A302 RMK A01 T10261042  RH  089%=      5-min Rain = 0
KBR1 200851Z 05006KT M03/M04 A302 RMK A01 T10261043  RH  088%=      5-min Rain = 0
KBR1 200852Z 05006KT M03/M04 A302 RMK A01 T10261043  RH  088%=      5-min Rain = 0
KBR1 200853Z 05005KT M03/M04 A302 RMK A01 T10251043  RH  088%=      5-min Rain = 0
KBR1 200854Z 05005KT M03/M04 A302 RMK A01 T10251043  RH  088%=      5-min Rain = 0
KBR1 200855Z 05005KT M03/M04 A302 RMK A01 T10251043  RH  088%=      5-min Rain = 0
KBR1 200856Z 04005KT M03/M04 A302 RMK A01 T10251043  RH  088%=      5-min Rain = 0
KBR1 200857Z 04005KT M03/M04 A302 RMK A01 T10251043  RH  087%=      5-min Rain = 0
KBR1 200858Z 04006KT M03/M04 A302 RMK A01 T10261044  RH  087%=      5-min Rain = 0
KBR1 200859Z 04005KT M03/M04 A302 RMK A01 T10261044  RH  087%=      5-min Rain = 0
KBR1 200900Z 04005KT M03/M04 A302 RMK A01 T10261044  RH  087%=      5-min Rain = 0
KBR1 200901Z 04004KT M03/M05 A302 RMK A01 T10261045  RH  087%=      5-min Rain = 0
KBR1 200902Z 04005KT M03/M05 A302 RMK A01 T10271045  RH  087%=      5-min Rain = 0
KBR1 200903Z 04005KT M03/M05 A302 RMK A01 T10271045  RH  087%=      5-min Rain = 0
KBR1 200904Z 04005KT M03/M05 A302 RMK A01 T10271045  RH  088%=      5-min Rain = 0
KBR1 200905Z 04004KT M03/M05 A302 RMK A01 T10281045  RH  088%=      5-min Rain = 0
KBR1 200906Z 04004KT M03/M05 A302 RMK A01 T10281046  RH  088%=      5-min Rain = 0
KBR1 200907Z 03004KT M03/M05 A302 RMK A01 T10281045  RH  088%=      5-min Rain = 0
KBR1 200908Z 04004KT M03/M05 A302 RMK A01 T10291046  RH  088%=      5-min Rain = 0
KBR1 200909Z 04004KT M03/M05 A302 RMK A01 T10291046  RH  088%=      5-min Rain = 0
KBR1 200910Z 04004KT M03/M05 A302 RMK A01 T10291046  RH  088%=      5-min Rain = 0
KBR1 200911Z 04005KT M03/M05 A302 RMK A01 T10281045  RH  088%=      5-min Rain = 0
KBR1 200912Z 04005KT M03/M05 A3021 RMK A01 T10281045  RH  088%=      5-min Rain = 0
KBR1 200913Z 04005KT M03/M05 A3021 RMK A01 T10281046  RH  088%=      5-min Rain = 0
KBR1 200914Z 05005KT M03/M05 A3021 RMK A01 T10281046  RH  088%=      5-min Rain = 0
KBR1 200915Z 05006KT M03/M05 A3021 RMK A01 T10281046  RH  088%=      5-min Rain = 0
KBR1 200916Z 05005KT M03/M05 A3021 RMK A01 T10291046  RH  088%=      5-min Rain = 0
KBR1 200917Z 05005KT M03/M05 A302 RMK A01 T10291046  RH  088%=      5-min Rain = 0
KBR1 200918Z 05005KT M03/M05 A302 RMK A01 T10291046  RH  088%=      5-min Rain = 0
KBR1 200919Z 05005KT M03/M05 A302 RMK A01 T10291046  RH  088%=      5-min Rain = 0
KBR1 200920Z 05005KT M03/M05 A302 RMK A01 T10291046  RH  088%=      5-min Rain = 0
KBR1 200921Z 05005KT M03/M05 A302 RMK A01 T10291046  RH  088%=      5-min Rain = 0
KBR1 200922Z 05004KT M03/M05 A302 RMK A01 T10281046  RH  088%=      5-min Rain = 0
KBR1 200923Z 05005KT M03/M05 A302 RMK A01 T10281046  RH  088%=      5-min Rain = 0
KBR1 200924Z 05005KT M03/M05 A302 RMK A01 T10281046  RH  088%=      5-min Rain = 0
KBR1 200925Z 04005KT M03/M05 A3021 RMK A01 T10281046  RH  087%=      5-min Rain = 0
KBR1 200926Z 04005KT M03/M05 A3021 RMK A01 T10281046  RH  087%=      5-min Rain = 0
KBR1 200927Z 04005KT M03/M05 A3021 RMK A01 T10281046  RH  087%=      5-min Rain = 0
KBR1 200928Z 04004KT M03/M05 A3021 RMK A01 T10281046  RH  087%=      5-min Rain = 0
KBR1 200929Z 04004KT M03/M05 A3021 RMK A01 T10281046  RH  087%=      5-min Rain = 0
KBR1 200930Z 05004KT M03/M05 A3021 RMK A01 T10281046  RH  088%=      5-min Rain = 0
KBR1 200931Z 04004KT M03/M05 A302 RMK A01 T10281046  RH  088%=      5-min Rain = 0
KBR1 200932Z 04005KT M03/M05 A302 RMK A01 T10281046  RH  088%=      5-min Rain = 0
KBR1 200933Z 04005KT M03/M05 A3021 RMK A01 T10281046  RH  087%=      5-min Rain = 0
KBR1 200934Z 04005KT M03/M05 A3021 RMK A01 T10271045  RH  087%=      5-min Rain = 0
KBR1 200935Z 04005KT M03/M05 A3021 RMK A01 T10271045  RH  087%=      5-min Rain = 0
KBR1 200936Z 04005KT M03/M05 A3021 RMK A01 T10271046  RH  087%=      5-min Rain = 0
KBR1 200937Z 04005KT M03/M05 A302 RMK A01 T10281047  RH  087%=      5-min Rain = 0
KBR1 200938Z 04005KT M03/M05 A302 RMK A01 T10291047  RH  087%=      5-min Rain = 0
KBR1 200939Z 04005KT M03/M05 A302 RMK A01 T10301048  RH  087%=      5-min Rain = 0
KBR1 200940Z 04004KT M03/M05 A302 RMK A01 T10301047  RH  088%=      5-min Rain = 0
KBR1 200941Z 05004KT M03/M05 A302 RMK A01 T10301047  RH  088%=      5-min Rain = 0
KBR1 200942Z 06003KT M03/M05 A3021 RMK A01 T10301047  RH  088%=      5-min Rain = 0
KBR1 200943Z 06004KT M03/M05 A3021 RMK A01 T10301047  RH  088%=      5-min Rain = 0
KBR1 200944Z 05005KT M03/M05 A3021 RMK A01 T10281045  RH  088%=      5-min Rain = 0
KBR1 200945Z 05006KT M03/M04 A3021 RMK A01 T10271044  RH  088%=      5-min Rain = 0
KBR1 200946Z 04006KT M03/M04 A3021 RMK A01 T10251043  RH  088%=      5-min Rain = 0
KBR1 200947Z 04005KT M03/M04 A3021 RMK A01 T10251044  RH  087%=      5-min Rain = 0
KBR1 200948Z 03004KT M03/M05 A3021 RMK A01 T10251045  RH  086%=      5-min Rain = 0
KBR1 200949Z 02004KT M03/M05 A302 RMK A01 T10261046  RH  086%=      5-min Rain = 0
KBR1 200950Z 01003KT M03/M05 A302 RMK A01 T10261045  RH  087%=      5-min Rain = 0
KBR1 200951Z 02003KT M03/M05 A302 RMK A01 T10261045  RH  087%=      5-min Rain = 0
KBR1 200952Z 02003KT M03/M05 A302 RMK A01 T10271046  RH  087%=      5-min Rain = 0
KBR1 200953Z 02003KT M03/M05 A302 RMK A01 T10281046  RH  087%=      5-min Rain = 0
KBR1 200954Z 02004KT M03/M05 A302 RMK A01 T10301048  RH  087%=      5-min Rain = 0
KBR1 200955Z 02005KT M03/M05 A302 RMK A01 T10311048  RH  088%=      5-min Rain = 0
KBR1 200956Z 02006KT M03/M05 A302 RMK A01 T10321048  RH  089%=      5-min Rain = 0
KBR1 200957Z 03006KT M03/M05 A302 RMK A01 T10311047  RH  089%=      5-min Rain = 0
KBR1 200958Z 03006KT M03/M05 A302 RMK A01 T10301046  RH  089%=      5-min Rain = 0
KBR1 200959Z 03005KT M03/M05 A302 RMK A01 T10291046  RH  088%=      5-min Rain = 0
KBR1 201000Z 04005KT M03/M05 A302 RMK A01 T10291046  RH  088%=      5-min Rain = 0
KBR1 201001Z 04004KT M03/M05 A302 RMK A01 T10291046  RH  088%=      5-min Rain = 0
KBR1 201002Z 04004KT M03/M05 A302 RMK A01 T10281046  RH  088%=      5-min Rain = 0
KBR1 201003Z 04003KT M03/M05 A302 RMK A01 T10291046  RH  088%=      5-min Rain = 0
KBR1 201004Z 03004KT M03/M05 A3019 RMK A01 T10301047  RH  088%=      5-min Rain = 0
KBR1 201005Z 02004KT M03/M05 A3019 RMK A01 T10311048  RH  088%=      5-min Rain = 0
KBR1 201006Z 02003KT M03/M05 A3019 RMK A01 T10311048  RH  088%=      5-min Rain = 0
KBR1 201007Z 02004KT M03/M05 A3019 RMK A01 T10311048  RH  088%=      5-min Rain = 0
KBR1 201008Z 02004KT M03/M05 A3019 RMK A01 T10321048  RH  088%=      5-min Rain = 0
KBR1 201009Z 03005KT M03/M05 A3019 RMK A01 T10311047  RH  089%=      5-min Rain = 0
KBR1 201010Z 03005KT M03/M05 A3019 RMK A01 T10301047  RH  088%=      5-min Rain = 0
KBR1 201011Z 03005KT M03/M05 A3019 RMK A01 T10301047  RH  088%=      5-min Rain = 0
KBR1 201012Z 03004KT M03/M05 A3019 RMK A01 T10301047  RH  088%=      5-min Rain = 0
KBR1 201013Z 03004KT M03/M05 A3019 RMK A01 T10291047  RH  088%=      5-min Rain = 0
KBR1 201014Z 03004KT M03/M05 A3019 RMK A01 T10301047  RH  088%=      5-min Rain = 0
KBR1 201015Z 02005KT M03/M05 A3019 RMK A01 T10301047  RH  088%=      5-min Rain = 0
KBR1 201016Z 03004KT M03/M05 A3019 RMK A01 T10301047  RH  088%=      5-min Rain = 0
KBR1 201017Z 03004KT M03/M05 A3019 RMK A01 T10291047  RH  088%=      5-min Rain = 0
KBR1 201018Z 04003KT M03/M05 A3019 RMK A01 T10291047  RH  088%=      5-min Rain = 0
KBR1 201019Z 03004KT M03/M05 A3019 RMK A01 T10301047  RH  088%=      5-min Rain = 0
KBR1 201020Z 02004KT M03/M05 A3019 RMK A01 T10301047  RH  088%=      5-min Rain = 0
KBR1 201021Z 02005KT M03/M05 A3019 RMK A01 T10301047  RH  088%=      5-min Rain = 0
KBR1 201022Z 02004KT M03/M05 A3019 RMK A01 T10301047  RH  088%=      5-min Rain = 0
KBR1 201023Z 02004KT M03/M05 A3019 RMK A01 T10301048  RH  088%=      5-min Rain = 0
KBR1 201024Z 02004KT M03/M05 A3019 RMK A01 T10311049  RH  088%=      5-min Rain = 0
KBR1 201025Z 02005KT M03/M05 A3018 RMK A01 T10321049  RH  088%=      5-min Rain = 0
KBR1 201026Z 03004KT M03/M05 A3018 RMK A01 T10321049  RH  088%=      5-min Rain = 0
KBR1 201027Z 03003KT M03/M05 A3018 RMK A01 T10321048  RH  088%=      5-min Rain = 0
KBR1 201028Z 04003KT M03/M05 A3018 RMK A01 T10321048  RH  089%=      5-min Rain = 0
KBR1 201029Z 03004KT M03/M05 A3018 RMK A01 T10321048  RH  089%=      5-min Rain = 0
KBR1 201030Z 03003KT M03/M05 A3019 RMK A01 T10311048  RH  089%=      5-min Rain = 0
KBR1 201031Z 02003KT M03/M05 A3019 RMK A01 T10321048  RH  088%=      5-min Rain = 0
KBR1 201032Z 02003KT M03/M05 A3019 RMK A01 T10321049  RH  088%=      5-min Rain = 0
KBR1 201033Z 01003KT M03/M05 A3019 RMK A01 T10321049  RH  088%=      5-min Rain = 0
KBR1 201034Z 01003KT M03/M05 A3019 RMK A01 T10321049  RH  088%=      5-min Rain = 0
KBR1 201035Z 02003KT M03/M05 A3019 RMK A01 T10321049  RH  089%=      5-min Rain = 0
KBR1 201036Z 02004KT M03/M05 A3019 RMK A01 T10321048  RH  089%=      5-min Rain = 0
KBR1 201037Z 03003KT M03/M05 A3019 RMK A01 T10321048  RH  089%=      5-min Rain = 0
KBR1 201038Z 03003KT M03/M05 A3019 RMK A01 T10311048  RH  089%=      5-min Rain = 0
KBR1 201039Z 04003KT M03/M05 A3019 RMK A01 T10311048  RH  088%=      5-min Rain = 0
KBR1 201040Z 03003KT M03/M05 A3019 RMK A01 T10311047  RH  088%=      5-min Rain = 0
KBR1 201041Z 02003KT M03/M05 A3019 RMK A01 T10301047  RH  088%=      5-min Rain = 0
KBR1 201042Z 02003KT M03/M05 A3019 RMK A01 T10311048  RH  088%=      5-min Rain = 0
KBR1 201043Z 02003KT M03/M05 A3019 RMK A01 T10301048  RH  088%=      5-min Rain = 0
KBR1 201044Z 02003KT M03/M05 A3019 RMK A01 T10301048  RH  088%=      5-min Rain = 0
KBR1 201045Z 03003KT M03/M05 A3018 RMK A01 T10301048  RH  088%=      5-min Rain = 0
KBR1 201046Z 03003KT M03/M05 A3018 RMK A01 T10301048  RH  088%=      5-min Rain = 0
KBR1 201047Z 03003KT M03/M05 A3018 RMK A01 T10301047  RH  088%=      5-min Rain = 0
KBR1 201048Z 03002KT M03/M05 A3018 RMK A01 T10301048  RH  088%=      5-min Rain = 0
KBR1 201049Z 03002KT M03/M05 A3018 RMK A01 T10301048  RH  087%=      5-min Rain = 0
KBR1 201050Z 03003KT M03/M05 A3018 RMK A01 T10311049  RH  087%=      5-min Rain = 0
KBR1 201051Z 03003KT M03/M05 A3018 RMK A01 T10311049  RH  088%=      5-min Rain = 0
KBR1 201052Z 04002KT M03/M05 A3018 RMK A01 T10311048  RH  088%=      5-min Rain = 0
KBR1 201053Z 03002KT M03/M05 A3018 RMK A01 T10311048  RH  088%=      5-min Rain = 0
KBR1 201054Z 03002KT M03/M05 A3018 RMK A01 T10311048  RH  088%=      5-min Rain = 0
KBR1 201055Z 03002KT M03/M05 A3018 RMK A01 T10311049  RH  088%=      5-min Rain = 0
KBR1 201056Z 03002KT M03/M05 A3018 RMK A01 T10321049  RH  088%=      5-min Rain = 0
KBR1 201057Z 03002KT M03/M05 A3018 RMK A01 T10321049  RH  088%=      5-min Rain = 0
KBR1 201058Z 03002KT M03/M05 A3018 RMK A01 T10331050  RH  088%=      5-min Rain = 0
KBR1 201059Z 03002KT M03/M05 A3018 RMK A01 T10331050  RH  088%=      5-min Rain = 0
KBR1 201100Z 03002KT M03/M05 A3018 RMK A01 T10341050  RH  088%=      5-min Rain = 0
KBR1 201101Z 03002KT M03/M05 A3018 RMK A01 T10341050  RH  089%=      5-min Rain = 0
KBR1 201102Z 03002KT M03/M05 A3018 RMK A01 T10341049  RH  089%=      5-min Rain = 0
KBR1 201103Z 03002KT M03/M05 A3018 RMK A01 T10341050  RH  089%=      5-min Rain = 0
KBR1 201104Z 03002KT M03/M05 A3018 RMK A01 T10341050  RH  089%=      5-min Rain = 0
KBR1 201105Z 03003KT M04/M05 A3017 RMK A01 T10351050  RH  089%=      5-min Rain = 0
KBR1 201106Z 02003KT M04/M05 A3017 RMK A01 T10351050  RH  089%=      5-min Rain = 0
KBR1 201107Z 03003KT M04/M05 A3017 RMK A01 T10351050  RH  089%=      5-min Rain = 0
KBR1 201108Z 03002KT M04/M05 A3017 RMK A01 T10351050  RH  089%=      5-min Rain = 0
KBR1 201109Z 04002KT M04/M05 A3017 RMK A01 T10351051  RH  089%=      5-min Rain = 0
KBR1 201110Z 05002KT M04/M05 A3017 RMK A01 T10351050  RH  089%=      5-min Rain = 0
KBR1 201111Z 05002KT M04/M05 A3017 RMK A01 T10351050  RH  089%=      5-min Rain = 0
KBR1 201112Z 06002KT M04/M05 A3017 RMK A01 T10351050  RH  089%=      5-min Rain = 0
KBR1 201113Z 06002KT M03/M05 A3017 RMK A01 T10341049  RH  090%=      5-min Rain = 0
KBR1 201114Z 06002KT M03/M05 A3017 RMK A01 T10321048  RH  089%=      5-min Rain = 0
KBR1 201115Z 06002KT M03/M05 A3017 RMK A01 T10321049  RH  088%=      5-min Rain = 0
KBR1 201116Z 06002KT M03/M05 A3017 RMK A01 T10331051  RH  088%=      5-min Rain = 0
KBR1 201117Z 06002KT M03/M05 A3017 RMK A01 T10341050  RH  088%=      5-min Rain = 0
KBR1 201118Z 06002KT M03/M05 A3017 RMK A01 T10331049  RH  089%=      5-min Rain = 0
KBR1 201119Z 06002KT M03/M05 A3017 RMK A01 T10331049  RH  089%=      5-min Rain = 0
KBR1 201120Z 06002KT M03/M05 A3017 RMK A01 T10331049  RH  088%=      5-min Rain = 0
KBR1 201121Z 06001KT M03/M05 A3017 RMK A01 T10321049  RH  088%=      5-min Rain = 0
KBR1 201122Z 06001KT M03/M05 A3017 RMK A01 T10321049  RH  088%=      5-min Rain = 0
KBR1 201123Z 06000KT M03/M05 A3017 RMK A01 T10321049  RH  089%=      5-min Rain = 0
KBR1 201124Z 06000KT M03/M05 A3017 RMK A01 T10311048  RH  089%=      5-min Rain = 0
KBR1 201125Z 11001KT M03/M05 A3017 RMK A01 T10321050  RH  087%=      5-min Rain = 0
KBR1 201126Z 10001KT M03/M05 A3017 RMK A01 T10331051  RH  087%=      5-min Rain = 0
KBR1 201127Z 09001KT M03/M05 A3017 RMK A01 T10331050  RH  088%=      5-min Rain = 0
KBR1 201128Z 09002KT M03/M05 A3017 RMK A01 T10341051  RH  088%=      5-min Rain = 0
KBR1 201129Z 08002KT M03/M05 A3017 RMK A01 T10341051  RH  089%=      5-min Rain = 0
KBR1 201130Z 08002KT M03/M05 A3017 RMK A01 T10331047  RH  090%=      5-min Rain = 0
KBR1 201131Z 08001KT M03/M05 A3017 RMK A01 T10311045  RH  090%=      5-min Rain = 0
KBR1 201132Z 08001KT M03/M04 A3017 RMK A01 T10291044  RH  089%=      5-min Rain = 0
KBR1 201133Z 08001KT M03/M04 A3017 RMK A01 T10271044  RH  088%=      5-min Rain = 0
KBR1 201134Z 08001KT M03/M04 A3017 RMK A01 T10271044  RH  088%=      5-min Rain = 0
KBR1 201135Z 08002KT M03/M05 A3017 RMK A01 T10271046  RH  087%=      5-min Rain = 0
KBR1 201136Z 07002KT M03/M05 A3016 RMK A01 T10291050  RH  085%=      5-min Rain = 0
KBR1 201137Z 07001KT M03/M05 A3016 RMK A01 T10331054  RH  085%=      5-min Rain = 0
KBR1 201138Z 07001KT M04/M05 A3016 RMK A01 T10351054  RH  087%=      5-min Rain = 0
KBR1 201139Z 07001KT M04/M05 A3016 RMK A01 T10371054  RH  088%=      5-min Rain = 0
KBR1 201140Z 07001KT M04/M05 A3016 RMK A01 T10381053  RH  089%=      5-min Rain = 0
KBR1 201141Z 06002KT M04/M05 A3016 RMK A01 T10391053  RH  090%=      5-min Rain = 0
KBR1 201142Z 06002KT M04/M05 A3016 RMK A01 T10391053  RH  090%=      5-min Rain = 0
KBR1 201143Z 06001KT M04/M05 A3016 RMK A01 T10391052  RH  091%=      5-min Rain = 0
KBR1 201144Z 06001KT M04/M05 A3016 RMK A01 T10391052  RH  091%=      5-min Rain = 0
KBR1 201145Z 06001KT M04/M05 A3016 RMK A01 T10401052  RH  091%=      5-min Rain = 0
KBR1 201146Z 06000KT M04/M05 A3016 RMK A01 T10401052  RH  091%=      5-min Rain = 0
KBR1 201147Z 00000KT M04/M05 A3016 RMK A01 T10401052  RH  091%=      5-min Rain = 0
KBR1 201148Z 00000KT M04/M05 A3017 RMK A01 T10391052  RH  091%=      5-min Rain = 0
KBR1 201149Z 00000KT M04/M05 A3017 RMK A01 T10401053  RH  091%=      5-min Rain = 0
KBR1 201150Z 00000KT M04/M05 A3016 RMK A01 T10401052  RH  091%=      5-min Rain = 0
KBR1 201151Z 00000KT M04/M05 A3016 RMK A01 T10401052  RH  091%=      5-min Rain = 0
KBR1 201152Z 00000KT M04/M05 A3016 RMK A01 T10411052  RH  091%=      5-min Rain = 0
KBR1 201153Z 00000KT M04/M05 A3016 RMK A01 T10411053  RH  091%=      5-min Rain = 0
KBR1 201154Z 00000KT M04/M05 A3016 RMK A01 T10401052  RH  091%=      5-min Rain = 0
KBR1 201155Z 00000KT M04/M05 A3016 RMK A01 T10401052  RH  091%=      5-min Rain = 0
KBR1 201156Z 00000KT M04/M05 A3016 RMK A01 T10401052  RH  091%=      5-min Rain = 0
KBR1 201157Z 00000KT M04/M05 A3016 RMK A01 T10401052  RH  091%=      5-min Rain = 0
KBR1 201158Z 36002KT M04/M05 A3016 RMK A01 T10411053  RH  091%=      5-min Rain = 0
KBR1 201159Z 00003KT M04/M05 A3016 RMK A01 T10411054  RH  091%=      5-min Rain = 0
KBR1 201200Z 00003KT M04/M05 A3016 RMK A01 T10421054  RH  091%=      5-min Rain = 0
KBR1 201201Z 36003KT M04/M05 A3016 RMK A01 T10421054  RH  091%=      5-min Rain = 0
KBR1 201202Z 36004KT M04/M05 A3016 RMK A01 T10421054  RH  091%=      5-min Rain = 0
KBR1 201203Z 35005KT M04/M05 A3016 RMK A01 T10421054  RH  092%=      5-min Rain = 0
KBR1 201204Z 35004KT M04/M05 A3016 RMK A01 T10421053  RH  092%=      5-min Rain = 0
KBR1 201205Z 35005KT M04/M05 A3016 RMK A01 T10411052  RH  092%=      5-min Rain = 0
KBR1 201206Z 35004KT M04/M05 A3016 RMK A01 T10401051  RH  092%=      5-min Rain = 0
KBR1 201207Z 34004KT M04/M05 A3016 RMK A01 T10401051  RH  092%=      5-min Rain = 0
KBR1 201208Z 34004KT M04/M05 A3016 RMK A01 T10391051  RH  091%=      5-min Rain = 0
KBR1 201209Z 33003KT M04/M05 A3016 RMK A01 T10391051  RH  091%=      5-min Rain = 0
KBR1 201210Z 33003KT M04/M05 A3016 RMK A01 T10391052  RH  091%=      5-min Rain = 0
KBR1 201211Z 33003KT M04/M05 A3016 RMK A01 T10391052  RH  091%=      5-min Rain = 0
KBR1 201212Z 33002KT M04/M05 A3016 RMK A01 T10391051  RH  091%=      5-min Rain = 0
KBR1 201213Z 32002KT M04/M05 A3016 RMK A01 T10391052  RH  091%=      5-min Rain = 0
KBR1 201214Z 32003KT M04/M05 A3016 RMK A01 T10391052  RH  091%=      5-min Rain = 0
KBR1 201215Z 31003KT M04/M05 A3016 RMK A01 T10391051  RH  091%=      5-min Rain = 0
KBR1 201216Z 31002KT M04/M05 A3016 RMK A01 T10391052  RH  091%=      5-min Rain = 0
KBR1 201217Z 31002KT M04/M05 A3016 RMK A01 T10391052  RH  091%=      5-min Rain = 0
KBR1 201218Z 31003KT M04/M05 A3016 RMK A01 T10391052  RH  091%=      5-min Rain = 0
KBR1 201219Z 31003KT M04/M05 A3016 RMK A01 T10391052  RH  091%=      5-min Rain = 0
KBR1 201220Z 31002KT M04/M05 A3016 RMK A01 T10391052  RH  091%=      5-min Rain = 0
KBR1 201221Z 31002KT M04/M05 A3016 RMK A01 T10391052  RH  091%=      5-min Rain = 0
KBR1 201222Z 31002KT M04/M05 A3016 RMK A01 T10391052  RH  091%=      5-min Rain = 0
KBR1 201223Z 31001KT M04/M05 A3016 RMK A01 T10391053  RH  091%=      5-min Rain = 0
KBR1 201224Z 31001KT M04/M05 A3016 RMK A01 T10401053  RH  091%=      5-min Rain = 0
KBR1 201225Z 31001KT M04/M05 A3016 RMK A01 T10401053  RH  091%=      5-min Rain = 0
KBR1 201226Z 32002KT M04/M05 A3016 RMK A01 T10401053  RH  091%=      5-min Rain = 0
KBR1 201227Z 32002KT M04/M05 A3016 RMK A01 T10411053  RH  091%=      5-min Rain = 0
KBR1 201228Z 32002KT M04/M05 A3016 RMK A01 T10411053  RH  091%=      5-min Rain = 0
KBR1 201229Z 33002KT M04/M05 A3016 RMK A01 T10401052  RH  091%=      5-min Rain = 0
KBR1 201230Z 33002KT M04/M05 A3016 RMK A01 T10391051  RH  092%=      5-min Rain = 0
KBR1 201231Z 33002KT M04/M05 A3016 RMK A01 T10381050  RH  091%=      5-min Rain = 0
KBR1 201232Z 33002KT M04/M05 A3016 RMK A01 T10381051  RH  091%=      5-min Rain = 0
KBR1 201233Z 33001KT M04/M05 A3017 RMK A01 T10381051  RH  091%=      5-min Rain = 0
KBR1 201234Z 32001KT M04/M05 A3017 RMK A01 T10381052  RH  090%=      5-min Rain = 0
KBR1 201235Z 32001KT M04/M05 A3017 RMK A01 T10381051  RH  090%=      5-min Rain = 0
KBR1 201236Z 30001KT M04/M05 A3017 RMK A01 T10381051  RH  090%=      5-min Rain = 0
KBR1 201237Z 30001KT M04/M05 A3017 RMK A01 T10381052  RH  090%=      5-min Rain = 0
KBR1 201238Z 30002KT M04/M05 A3016 RMK A01 T10381051  RH  090%=      5-min Rain = 0
KBR1 201239Z 30002KT M04/M05 A3016 RMK A01 T10381052  RH  090%=      5-min Rain = 0
KBR1 201240Z 30003KT M04/M05 A3016 RMK A01 T10381052  RH  090%=      5-min Rain = 0
KBR1 201241Z 30003KT M04/M05 A3016 RMK A01 T10381052  RH  090%=      5-min Rain = 0
KBR1 201242Z 31002KT M04/M05 A3016 RMK A01 T10391052  RH  090%=      5-min Rain = 0
KBR1 201243Z 32002KT M04/M05 A3016 RMK A01 T10391052  RH  091%=      5-min Rain = 0
KBR1 201244Z 33002KT M04/M05 A3016 RMK A01 T10391052  RH  091%=      5-min Rain = 0
KBR1 201245Z 33002KT M04/M05 A3016 RMK A01 T10391052  RH  091%=      5-min Rain = 0
KBR1 201246Z 34002KT M04/M05 A3016 RMK A01 T10391051  RH  091%=      5-min Rain = 0
KBR1 201247Z 34003KT M04/M05 A3016 RMK A01 T10381051  RH  091%=      5-min Rain = 0
KBR1 201248Z 35002KT M04/M05 A3016 RMK A01 T10381051  RH  091%=      5-min Rain = 0
KBR1 201249Z 35002KT M04/M05 A3016 RMK A01 T10371050  RH  091%=      5-min Rain = 0
KBR1 201250Z 35002KT M04/M05 A3016 RMK A01 T10371050  RH  091%=      5-min Rain = 0
KBR1 201251Z 35002KT M04/M05 A3016 RMK A01 T10361050  RH  090%=      5-min Rain = 0
KBR1 201252Z 35002KT M04/M05 A3016 RMK A01 T10361050  RH  090%=      5-min Rain = 0
KBR1 201253Z 34002KT M04/M05 A3016 RMK A01 T10351050  RH  090%=      5-min Rain = 0
KBR1 201254Z 34002KT M04/M05 A3016 RMK A01 T10351050  RH  090%=      5-min Rain = 0
KBR1 201255Z 34003KT M04/M05 A3016 RMK A01 T10351050  RH  089%=      5-min Rain = 0
KBR1 201256Z 34003KT M04/M05 A3016 RMK A01 T10351050  RH  089%=      5-min Rain = 0
KBR1 201257Z 34003KT M04/M05 A3016 RMK A01 T10361052  RH  089%=      5-min Rain = 0
KBR1 201258Z 35003KT M04/M06 A3016 RMK A01 T10381056  RH  088%=      5-min Rain = 0
KBR1 201259Z 36003KT M04/M06 A3016 RMK A01 T10421060  RH  087%=      5-min Rain = 0
KBR1 201300Z 36003KT M04/M06 A3016 RMK A01 T10431058  RH  089%=      5-min Rain = 0
KBR1 201301Z 00003KT M04/M05 A3016 RMK A01 T10411054  RH  091%=      5-min Rain = 0
KBR1 201302Z 00003KT M04/M05 A3016 RMK A01 T10401052  RH  091%=      5-min Rain = 0
KBR1 201303Z 35003KT M04/M05 A3016 RMK A01 T10381051  RH  091%=      5-min Rain = 0
KBR1 201304Z 34003KT M04/M05 A3016 RMK A01 T10371049  RH  091%=      5-min Rain = 0
KBR1 201305Z 33002KT M04/M05 A3016 RMK A01 T10361049  RH  091%=      5-min Rain = 0
KBR1 201306Z 33002KT M04/M05 A3016 RMK A01 T10351048  RH  090%=      5-min Rain = 0
KBR1 201307Z 33002KT M03/M05 A3016 RMK A01 T10341048  RH  090%=      5-min Rain = 0
KBR1 201308Z 33002KT M03/M05 A3016 RMK A01 T10341047  RH  090%=      5-min Rain = 0
KBR1 201309Z 35002KT M03/M05 A3016 RMK A01 T10331047  RH  090%=      5-min Rain = 0
KBR1 201310Z 01002KT M03/M05 A3016 RMK A01 T10311045  RH  090%=      5-min Rain = 0
KBR1 201311Z 01002KT M03/M04 A3016 RMK A01 T10291044  RH  089%=      5-min Rain = 0
KBR1 201312Z 01002KT M03/M04 A3016 RMK A01 T10281044  RH  089%=      5-min Rain = 0
KBR1 201313Z 01002KT M03/M05 A3016 RMK A01 T10271045  RH  088%=      5-min Rain = 0
KBR1 201314Z 01002KT M03/M05 A3016 RMK A01 T10271045  RH  088%=      5-min Rain = 0
KBR1 201315Z 00002KT M03/M04 A3016 RMK A01 T10261044  RH  087%=      5-min Rain = 0
KBR1 201316Z 35001KT M03/M04 A3016 RMK A01 T10261044  RH  087%=      5-min Rain = 0
KBR1 201317Z 35001KT M03/M05 A3016 RMK A01 T10261045  RH  087%=      5-min Rain = 0
KBR1 201318Z 34001KT M03/M05 A3016 RMK A01 T10251045  RH  086%=      5-min Rain = 0
KBR1 201319Z 34001KT M03/M05 A3016 RMK A01 T10251045  RH  086%=      5-min Rain = 0
KBR1 201320Z 32000KT M03/M05 A3016 RMK A01 T10261046  RH  086%=      5-min Rain = 0
KBR1 201321Z 31001KT M03/M05 A3016 RMK A01 T10261046  RH  086%=      5-min Rain = 0
KBR1 201322Z 30001KT M03/M05 A3016 RMK A01 T10271047  RH  086%=      5-min Rain = 0
KBR1 201323Z 31001KT M03/M05 A3016 RMK A01 T10281047  RH  087%=      5-min Rain = 0
KBR1 201324Z 31001KT M03/M05 A3016 RMK A01 T10281046  RH  087%=      5-min Rain = 0
KBR1 201325Z 30001KT M03/M05 A3016 RMK A01 T10291047  RH  087%=      5-min Rain = 0
KBR1 201326Z 28001KT M03/M05 A3016 RMK A01 T10291047  RH  088%=      5-min Rain = 0
KBR1 201327Z 26001KT M03/M05 A3016 RMK A01 T10301048  RH  088%=      5-min Rain = 0
KBR1 201328Z 25001KT M03/M05 A3016 RMK A01 T10321050  RH  087%=      5-min Rain = 0
KBR1 201329Z 24001KT M03/M05 A3016 RMK A01 T10341053  RH  087%=      5-min Rain = 0
KBR1 201330Z 23002KT M04/M05 A3016 RMK A01 T10371054  RH  088%=      5-min Rain = 0
KBR1 201331Z 23002KT M04/M06 A3016 RMK A01 T10381055  RH  088%=      5-min Rain = 0
KBR1 201332Z 22002KT M04/M06 A3016 RMK A01 T10401056  RH  089%=      5-min Rain = 0
KBR1 201333Z 22002KT M04/M05 A3016 RMK A01 T10401054  RH  090%=      5-min Rain = 0
KBR1 201334Z 21002KT M04/M05 A3017 RMK A01 T10401053  RH  091%=      5-min Rain = 0
KBR1 201335Z 22002KT M04/M05 A3017 RMK A01 T10401052  RH  091%=      5-min Rain = 0
KBR1 201336Z 23003KT M04/M05 A3017 RMK A01 T10401053  RH  091%=      5-min Rain = 0
KBR1 201337Z 23003KT M04/M06 A3017 RMK A01 T10411055  RH  090%=      5-min Rain = 0
KBR1 201338Z 23002KT M04/M06 A3017 RMK A01 T10421055  RH  090%=      5-min Rain = 0
KBR1 201339Z 23003KT M04/M06 A3017 RMK A01 T10421055  RH  091%=      5-min Rain = 0
KBR1 201340Z 23003KT M04/M06 A3017 RMK A01 T10421055  RH  091%=      5-min Rain = 0
KBR1 201341Z 23003KT M04/M05 A3017 RMK A01 T10421054  RH  092%=      5-min Rain = 0
KBR1 201342Z 23003KT M04/M05 A3017 RMK A01 T10431054  RH  092%=      5-min Rain = 0
KBR1 201343Z 23003KT M04/M05 A3017 RMK A01 T10421054  RH  092%=      5-min Rain = 0
KBR1 201344Z 23003KT M04/M05 A3017 RMK A01 T10431054  RH  092%=      5-min Rain = 0
KBR1 201345Z 23003KT M04/M06 A3017 RMK A01 T10431055  RH  092%=      5-min Rain = 0
KBR1 201346Z 23003KT M04/M06 A3017 RMK A01 T10441056  RH  092%=      5-min Rain = 0
KBR1 201347Z 23003KT M05/M06 A3017 RMK A01 T10451057  RH  091%=      5-min Rain = 0
KBR1 201348Z 23003KT M05/M06 A3017 RMK A01 T10451057  RH  091%=      5-min Rain = 0
KBR1 201349Z 24002KT M05/M06 A3017 RMK A01 T10451057  RH  091%=      5-min Rain = 0
KBR1 201350Z 24002KT M05/M06 A3017 RMK A01 T10451057  RH  092%=      5-min Rain = 0
KBR1 201351Z 24002KT M05/M06 A3017 RMK A01 T10451056  RH  092%=      5-min Rain = 0
KBR1 201352Z 23002KT M05/M06 A3017 RMK A01 T10451056  RH  092%=      5-min Rain = 0
KBR1 201353Z 23001KT M05/M06 A3017 RMK A01 T10451056  RH  092%=      5-min Rain = 0
KBR1 201354Z 24000KT M05/M06 A3016 RMK A01 T10451056  RH  092%=      5-min Rain = 0
KBR1 201355Z 00000KT M05/M06 A3016 RMK A01 T10451056  RH  092%=      5-min Rain = 0
KBR1 201356Z 00000KT M04/M06 A3017 RMK A01 T10441055  RH  092%=      5-min Rain = 0
KBR1 201357Z 00000KT M04/M05 A3017 RMK A01 T10431054  RH  092%=      5-min Rain = 0
KBR1 201358Z 00000KT M04/M05 A3017 RMK A01 T10421053  RH  092%=      5-min Rain = 0
KBR1 201359Z 00000KT M04/M05 A3017 RMK A01 T10411051  RH  092%=      5-min Rain = 0
KBR1 201400Z 00000KT M04/M05 A3017 RMK A01 T10401051  RH  092%=      5-min Rain = 0
KBR1 201401Z 00000KT M04/M05 A3017 RMK A01 T10381050  RH  092%=      5-min Rain = 0
KBR1 201402Z 20000KT M04/M05 A3017 RMK A01 T10381050  RH  091%=      5-min Rain = 0
KBR1 201403Z 20001KT M04/M05 A3017 RMK A01 T10381051  RH  091%=      5-min Rain = 0
KBR1 201404Z 20001KT M04/M05 A3017 RMK A01 T10371051  RH  090%=      5-min Rain = 0
KBR1 201405Z 21001KT M04/M05 A3017 RMK A01 T10361050  RH  090%=      5-min Rain = 0
KBR1 201406Z 21002KT M04/M05 A3017 RMK A01 T10361049  RH  090%=      5-min Rain = 0
KBR1 201407Z 21002KT M04/M05 A3017 RMK A01 T10361050  RH  090%=      5-min Rain = 0
KBR1 201408Z 21002KT M04/M05 A3016 RMK A01 T10361050  RH  090%=      5-min Rain = 0
KBR1 201409Z 21003KT M04/M05 A3016 RMK A01 T10361050  RH  090%=      5-min Rain = 0
KBR1 201410Z 21003KT M04/M05 A3016 RMK A01 T10351050  RH  090%=      5-min Rain = 0
KBR1 201411Z 21003KT M04/M05 A3016 RMK A01 T10351049  RH  090%=      5-min Rain = 0
KBR1 201412Z 22003KT M03/M05 A3016 RMK A01 T10331048  RH  089%=      5-min Rain = 0
KBR1 201413Z 22003KT M03/M05 A3016 RMK A01 T10331048  RH  089%=      5-min Rain = 0
KBR1 201414Z 23003KT M03/M05 A3016 RMK A01 T10321048  RH  089%=      5-min Rain = 0
KBR1 201415Z 22003KT M03/M05 A3016 RMK A01 T10321049  RH  088%=      5-min Rain = 0
KBR1 201416Z 22003KT M03/M05 A3016 RMK A01 T10321049  RH  088%=      5-min Rain = 0
KBR1 201417Z 22003KT M03/M05 A3016 RMK A01 T10321049  RH  088%=      5-min Rain = 0
KBR1 201418Z 22003KT M03/M05 A3016 RMK A01 T10321049  RH  088%=      5-min Rain = 0
KBR1 201419Z 22002KT M03/M05 A3016 RMK A01 T10321049  RH  088%=      5-min Rain = 0
KBR1 201420Z 23002KT M03/M05 A3016 RMK A01 T10321049  RH  088%=      5-min Rain = 0
KBR1 201421Z 24002KT M03/M05 A3016 RMK A01 T10331050  RH  088%=      5-min Rain = 0
KBR1 201422Z 24002KT M03/M05 A3016 RMK A01 T10341050  RH  089%=      5-min Rain = 0
KBR1 201423Z 24003KT M04/M05 A3016 RMK A01 T10351050  RH  089%=      5-min Rain = 0
KBR1 201424Z 24003KT M04/M05 A3016 RMK A01 T10351051  RH  089%=      5-min Rain = 0
KBR1 201425Z 23003KT M04/M05 A3016 RMK A01 T10361052  RH  089%=      5-min Rain = 0
KBR1 201426Z 23003KT M04/M05 A3016 RMK A01 T10371052  RH  089%=      5-min Rain = 0
KBR1 201427Z 23003KT M04/M05 A3016 RMK A01 T10371052  RH  090%=      5-min Rain = 0
KBR1 201428Z 23004KT M04/M05 A3016 RMK A01 T10381052  RH  090%=      5-min Rain = 0
KBR1 201429Z 23004KT M04/M05 A3016 RMK A01 T10381051  RH  090%=      5-min Rain = 0
KBR1 201430Z 23004KT M04/M05 A3016 RMK A01 T10381051  RH  090%=      5-min Rain = 0
KBR1 201431Z 23005KT M04/M05 A3016 RMK A01 T10371050  RH  091%=      5-min Rain = 0
KBR1 201432Z 24005KT M04/M05 A3016 RMK A01 T10361049  RH  091%=      5-min Rain = 0
KBR1 201433Z 24005KT M04/M05 A3016 RMK A01 T10351048  RH  091%=      5-min Rain = 0
KBR1 201434Z 24005KT M04/M05 A3016 RMK A01 T10351048  RH  091%=      5-min Rain = 0
KBR1 201435Z 24005KT M03/M05 A3017 RMK A01 T10341047  RH  091%=      5-min Rain = 0
KBR1 201436Z 24005KT M03/M05 A3017 RMK A01 T10341047  RH  091%=      5-min Rain = 0
KBR1 201437Z 24005KT M03/M05 A3017 RMK A01 T10341047  RH  091%=      5-min Rain = 0
KBR1 201438Z 24006KT M03/M05 A3017 RMK A01 T10341047  RH  090%=      5-min Rain = 0
KBR1 201439Z 24005KT M03/M05 A3017 RMK A01 T10341047  RH  090%=      5-min Rain = 0
KBR1 201440Z 24005KT M03/M05 A3017 RMK A01 T10341048  RH  090%=      5-min Rain = 0
KBR1 201441Z 23005KT M03/M05 A3017 RMK A01 T10341048  RH  090%=      5-min Rain = 0
KBR1 201442Z 23005KT M03/M05 A3017 RMK A01 T10341048  RH  090%=      5-min Rain = 0
KBR1 201443Z 23005KT M03/M05 A3017 RMK A01 T10341048  RH  090%=      5-min Rain = 0
KBR1 201444Z 23005KT M03/M05 A3017 RMK A01 T10341048  RH  090%=      5-min Rain = 0
KBR1 201445Z 23005KT M03/M05 A3017 RMK A01 T10341049  RH  090%=      5-min Rain = 0
KBR1 201446Z 22005KT M04/M05 A3017 RMK A01 T10351049  RH  090%=      5-min Rain = 0
KBR1 201447Z 22006KT M04/M05 A3017 RMK A01 T10351049  RH  090%=      5-min Rain = 0
KBR1 201448Z 22006KT M04/M05 A3017 RMK A01 T10351049  RH  090%=      5-min Rain = 0
KBR1 201449Z 22006KT M04/M05 A3017 RMK A01 T10351049  RH  090%=      5-min Rain = 0
KBR1 201450Z 23006KT M04/M05 A3017 RMK A01 T10351049  RH  090%=      5-min Rain = 0
KBR1 201451Z 23006KT M04/M05 A3017 RMK A01 T10351048  RH  090%=      5-min Rain = 0
KBR1 201452Z 23006KT M03/M05 A3017 RMK A01 T10341048  RH  090%=      5-min Rain = 0
KBR1 201453Z 23007KT M03/M05 A3017 RMK A01 T10341047  RH  091%=      5-min Rain = 0
KBR1 201454Z 23006KT M03/M05 A3017 RMK A01 T10331046  RH  091%=      5-min Rain = 0
KBR1 201455Z 23006KT M03/M05 A3017 RMK A01 T10321045  RH  091%=      5-min Rain = 0
KBR1 201456Z 23006KT M03/M05 A3017 RMK A01 T10321045  RH  091%=      5-min Rain = 0
KBR1 201457Z 23006KT M03/M04 A3017 RMK A01 T10311044  RH  091%=      5-min Rain = 0
KBR1 201458Z 23006KT M03/M04 A3017 RMK A01 T10311044  RH  091%=      5-min Rain = 0
KBR1 201459Z 23006KT M03/M04 A3017 RMK A01 T10301043  RH  091%=      5-min Rain = 0
KBR1 201500Z 22006KT M03/M04 A3017 RMK A01 T10291042  RH  091%=      5-min Rain = 0
KBR1 201501Z 22006KT M03/M04 A3017 RMK A01 T10291042  RH  091%=      5-min Rain = 0
KBR1 201502Z 22005KT M03/M04 A3017 RMK A01 T10281040  RH  091%=      5-min Rain = 0
KBR1 201503Z 23005KT M03/M04 A3017 RMK A01 T10271040  RH  091%=      5-min Rain = 0
KBR1 201504Z 23005KT M03/M04 A3016 RMK A01 T10261039  RH  091%=      5-min Rain = 0
KBR1 201505Z 23006KT M03/M04 A3016 RMK A01 T10251038  RH  091%=      5-min Rain = 0
KBR1 201506Z 23006KT M02/M04 A3016 RMK A01 T10241037  RH  091%=      5-min Rain = 0
KBR1 201507Z 23006KT M02/M04 A3017 RMK A01 T10241037  RH  090%=      5-min Rain = 0
KBR1 201508Z 23006KT M02/M04 A3017 RMK A01 T10231036  RH  090%=      5-min Rain = 0
KBR1 201509Z 24006KT M02/M04 A3017 RMK A01 T10221036  RH  090%=      5-min Rain = 0
KBR1 201510Z 23006KT M02/M04 A3017 RMK A01 T10211036  RH  090%=      5-min Rain = 0
KBR1 201511Z 23006KT M02/M04 A3017 RMK A01 T10201035  RH  089%=      5-min Rain = 0
KBR1 201512Z 23005KT M02/M04 A3017 RMK A01 T10191035  RH  089%=      5-min Rain = 0
KBR1 201513Z 22005KT M02/M03 A3017 RMK A01 T10181034  RH  089%=      5-min Rain = 0
KBR1 201514Z 22005KT M02/M03 A3017 RMK A01 T10161032  RH  089%=      5-min Rain = 0
KBR1 201515Z 22005KT M02/M03 A3017 RMK A01 T10151031  RH  089%=      5-min Rain = 0
KBR1 201516Z 23005KT M01/M03 A3016 RMK A01 T10141031  RH  089%=      5-min Rain = 0
KBR1 201517Z 22004KT M01/M03 A3016 RMK A01 T10141031  RH  088%=      5-min Rain = 0
KBR1 201518Z 23004KT M01/M03 A3016 RMK A01 T10131031  RH  087%=      5-min Rain = 0
KBR1 201519Z 22004KT M01/M03 A3016 RMK A01 T10131032  RH  087%=      5-min Rain = 0
KBR1 201520Z 22004KT M01/M03 A3016 RMK A01 T10121031  RH  087%=      5-min Rain = 0
KBR1 201521Z 22003KT M01/M03 A3016 RMK A01 T10121030  RH  087%=      5-min Rain = 0
KBR1 201522Z 23003KT M01/M03 A3016 RMK A01 T10111028  RH  088%=      5-min Rain = 0
KBR1 201523Z 23004KT M01/M03 A3016 RMK A01 T10101029  RH  087%=      5-min Rain = 0
KBR1 201524Z 23004KT M01/M03 A3016 RMK A01 T10101030  RH  086%=      5-min Rain = 0
KBR1 201525Z 23004KT M01/M03 A3016 RMK A01 T10091030  RH  086%=      5-min Rain = 0
KBR1 201526Z 23004KT M01/M03 A3016 RMK A01 T10091029  RH  086%=      5-min Rain = 0
KBR1 201527Z 23004KT M01/M03 A3016 RMK A01 T10091029  RH  086%=      5-min Rain = 0
KBR1 201528Z 23004KT M01/M03 A3016 RMK A01 T10081028  RH  087%=      5-min Rain = 0
KBR1 201529Z 23005KT M01/M03 A3016 RMK A01 T10081027  RH  087%=      5-min Rain = 0
KBR1 201530Z 23004KT M01/M03 A3016 RMK A01 T10081027  RH  087%=      5-min Rain = 0
KBR1 201531Z 22004KT M01/M03 A3016 RMK A01 T10071026  RH  087%=      5-min Rain = 0
KBR1 201532Z 21005KT M01/M03 A3016 RMK A01 T10071026  RH  087%=      5-min Rain = 0
KBR1 201533Z 21005KT M01/M03 A3016 RMK A01 T10071027  RH  087%=      5-min Rain = 0
KBR1 201534Z 21005KT M01/M03 A3016 RMK A01 T10071027  RH  086%=      5-min Rain = 0
KBR1 201535Z 20005KT M01/M03 A3016 RMK A01 T10061026  RH  087%=      5-min Rain = 0
KBR1 201536Z 20005KT M01/M03 A3016 RMK A01 T10061025  RH  087%=      5-min Rain = 0
KBR1 201537Z 20004KT M01/M02 A3016 RMK A01 T10051024  RH  087%=      5-min Rain = 0
KBR1 201538Z 21004KT M01/M02 A3016 RMK A01 T10051024  RH  087%=      5-min Rain = 0
KBR1 201539Z 21004KT M00/M02 A3016 RMK A01 T10041024  RH  086%=      5-min Rain = 0
KBR1 201540Z 21005KT M00/M03 A3016 RMK A01 T10041025  RH  086%=      5-min Rain = 0
KBR1 201541Z 21004KT M00/M02 A3015 RMK A01 T10041024  RH  086%=      5-min Rain = 0
KBR1 201542Z 21004KT M00/M02 A3015 RMK A01 T10031022  RH  087%=      5-min Rain = 0
KBR1 201543Z 22004KT M00/M02 A3015 RMK A01 T10021020  RH  088%=      5-min Rain = 0
KBR1 201544Z 21005KT M00/M02 A3015 RMK A01 T10021021  RH  087%=      5-min Rain = 0
KBR1 201545Z 21004KT M00/M02 A3015 RMK A01 T10021022  RH  086%=      5-min Rain = 0
KBR1 201546Z 22004KT M00/M02 A3015 RMK A01 T10011021  RH  087%=      5-min Rain = 0
KBR1 201547Z 22003KT M00/M02 A3015 RMK A01 T10011020  RH  087%=      5-min Rain = 0
KBR1 201548Z 22004KT 00/02 A3015 RMK A01 T00-00-20  RH  087%=      5-min Rain = 0
KBR1 201549Z 21004KT 00/02 A3015 RMK A01 T00000-20  RH  086%=      5-min Rain = 0
KBR1 201550Z 21004KT 00/M02 A3015 RMK A01 T00011020  RH  086%=      5-min Rain = 0
KBR1 201551Z 22003KT 00/M02 A3015 RMK A01 T00011019  RH  086%=      5-min Rain = 0
KBR1 201552Z 22003KT 00/M02 A3015 RMK A01 T00021018  RH  086%=      5-min Rain = 0
KBR1 201553Z 22004KT 00/M02 A3015 RMK A01 T00021018  RH  086%=      5-min Rain = 0
KBR1 201554Z 22004KT 00/M02 A3015 RMK A01 T00031018  RH  086%=      5-min Rain = 0
KBR1 201555Z 23004KT 00/M02 A3015 RMK A01 T00031017  RH  086%=      5-min Rain = 0
KBR1 201556Z 22004KT 00/M02 A3015 RMK A01 T00041017  RH  086%=      5-min Rain = 0
KBR1 201557Z 22004KT 01/M02 A3015 RMK A01 T00051016  RH  086%=      5-min Rain = 0
KBR1 201558Z 21004KT 01/M02 A3015 RMK A01 T00051016  RH  086%=      5-min Rain = 0
KBR1 201559Z 22005KT 01/M02 A3015 RMK A01 T00051016  RH  086%=      5-min Rain = 0
KBR1 201600Z 22004KT 01/M02 A3015 RMK A01 T00061016  RH  085%=      5-min Rain = 0
KBR1 201601Z 23005KT 01/M02 A3015 RMK A01 T00061016  RH  085%=      5-min Rain = 0
KBR1 201602Z 23005KT 01/M02 A3015 RMK A01 T00071015  RH  086%=      5-min Rain = 0
KBR1 201603Z 23004KT 01/M01 A3015 RMK A01 T00081013  RH  086%=      5-min Rain = 0
KBR1 201604Z 23004KT 01/M01 A3015 RMK A01 T00101009  RH  087%=      5-min Rain = 0
KBR1 201605Z 22004KT 01/M01 A3015 RMK A01 T00111012  RH  085%=      5-min Rain = 0
KBR1 201606Z 22004KT 01/M01 A3015 RMK A01 T00121010  RH  085%=      5-min Rain = 0
KBR1 201607Z 22004KT 01/M01 A3015 RMK A01 T00131009  RH  085%=      5-min Rain = 0
KBR1 201608Z 21004KT 01/M01 A3015 RMK A01 T00141011  RH  084%=      5-min Rain = 0
KBR1 201609Z 22005KT 02/M01 A3015 RMK A01 T00151010  RH  084%=      5-min Rain = 0
KBR1 201610Z 22005KT 02/M01 A3015 RMK A01 T00151010  RH  083%=      5-min Rain = 0
KBR1 201611Z 23004KT 02/M01 A3015 RMK A01 T00151009  RH  084%=      5-min Rain = 0
KBR1 201612Z 23005KT 02/M01 A3015 RMK A01 T00161010  RH  083%=      5-min Rain = 0
KBR1 201613Z 23005KT 02/M01 A3015 RMK A01 T00171008  RH  083%=      5-min Rain = 0
KBR1 201614Z 23005KT 02/M01 A3015 RMK A01 T00191005  RH  084%=      5-min Rain = 0
KBR1 201615Z 24006KT 02/M01 A3015 RMK A01 T00201005  RH  084%=      5-min Rain = 0
KBR1 201616Z 24005KT 02/M00 A3015 RMK A01 T00211004  RH  084%=      5-min Rain = 0
KBR1 201617Z 24005KT 02/M00 A3015 RMK A01 T00221002  RH  084%=      5-min Rain = 0
KBR1 201618Z 23006KT 02/M00 A3015 RMK A01 T00221004  RH  083%=      5-min Rain = 0
KBR1 201619Z 24005KT 02/M00 A3015 RMK A01 T00221003  RH  084%=      5-min Rain = 0
KBR1 201620Z 24006KT 02/M00 A3015 RMK A01 T00231001  RH  084%=      5-min Rain = 0
KBR1 201621Z 23005KT 02/00 A3015 RMK A01 T002400-0  RH  084%=      5-min Rain = 0
KBR1 201622Z 23007KT 03/00 A3015 RMK A01 T00260002  RH  084%=      5-min Rain = 0
KBR1 201623Z 23006KT 03/00 A3015 RMK A01 T00280002  RH  083%=      5-min Rain = 0
KBR1 201624Z 23006KT 03/00 A3015 RMK A01 T00300004  RH  083%=      5-min Rain = 0
KBR1 201625Z 24007KT 03/00 A3015 RMK A01 T00310003  RH  082%=      5-min Rain = 0
KBR1 201626Z 23007KT 03/00 A3015 RMK A01 T00320004  RH  082%=      5-min Rain = 0
KBR1 201627Z 23006KT 03/00 A3015 RMK A01 T00330004  RH  081%=      5-min Rain = 0
KBR1 201628Z 23006KT 03/01 A3015 RMK A01 T00340005  RH  081%=      5-min Rain = 0
KBR1 201629Z 23006KT 04/01 A3015 RMK A01 T00350005  RH  081%=      5-min Rain = 0
KBR1 201630Z 23007KT 04/01 A3015 RMK A01 T00370009  RH  082%=      5-min Rain = 0
KBR1 201631Z 23005KT 04/01 A3015 RMK A01 T00380008  RH  081%=      5-min Rain = 0
KBR1 201632Z 23007KT 04/01 A3015 RMK A01 T00400011  RH  081%=      5-min Rain = 0
KBR1 201633Z 23007KT 04/01 A3015 RMK A01 T00420010  RH  080%=      5-min Rain = 0
KBR1 201634Z 24007KT 04/01 A3015 RMK A01 T00430009  RH  078%=      5-min Rain = 0
KBR1 201635Z 23008KT 04/01 A3015 RMK A01 T00440009  RH  078%=      5-min Rain = 0
KBR1 201636Z 24008KT 05/01 A3015 RMK A01 T00460011  RH  078%=      5-min Rain = 0
KBR1 201637Z 23007KT 05/01 A3015 RMK A01 T00490011  RH  077%=      5-min Rain = 0
KBR1 201638Z 24008KT 05/01 A3015 RMK A01 T00510014  RH  077%=      5-min Rain = 0
KBR1 201639Z 24008KT 05/01 A3015 RMK A01 T00530013  RH  075%=      5-min Rain = 0
KBR1 201640Z 24009KT 06/01 A3015 RMK A01 T00570005  RH  069%=      5-min Rain = 0
KBR1 201641Z 24010KT 06/M01 A3015 RMK A01 T00601005  RH  063%=      5-min Rain = 0
KBR1 201642Z 24010KT 06/M01 A3015 RMK A01 T00611007  RH  062%=      5-min Rain = 0
KBR1 201643Z 24009KT 06/M01 A3015 RMK A01 T00621008  RH  061%=      5-min Rain = 0
KBR1 201644Z 24008KT 06/M00 A3015 RMK A01 T00631004  RH  062%=      5-min Rain = 0
KBR1 201645Z 25008KT 07/M00 A3015 RMK A01 T00661002  RH  062%=      5-min Rain = 0
KBR1 201646Z 25009KT 07/M01 A3015 RMK A01 T00681007  RH  059%=      5-min Rain = 0
KBR1 201647Z 25009KT 07/M01 A3015 RMK A01 T00681008  RH  058%=      5-min Rain = 0
KBR1 201648Z 25008KT 07/M01 A3015 RMK A01 T00691010  RH  057%=      5-min Rain = 0
KBR1 201649Z 25010KT 07/M01 A3015 RMK A01 T00701010  RH  057%=      5-min Rain = 0
KBR1 201650Z 25008KT 07/M01 A3015 RMK A01 T00721011  RH  055%=      5-min Rain = 0
KBR1 201651Z 25008KT 08/M01 A3015 RMK A01 T00751008  RH  056%=      5-min Rain = 0
KBR1 201652Z 24009KT 08/M01 A3015 RMK A01 T00771012  RH  053%=      5-min Rain = 0
KBR1 201653Z 24009KT 08/M02 A3015 RMK A01 T00771016  RH  052%=      5-min Rain = 0
KBR1 201654Z 23009KT 08/M02 A3014 RMK A01 T00771017  RH  051%=      5-min Rain = 0
KBR1 201655Z 24008KT 08/M02 A3014 RMK A01 T00781016  RH  051%=      5-min Rain = 0
KBR1 201656Z 24008KT 08/M02 A3014 RMK A01 T00791015  RH  052%=      5-min Rain = 0
KBR1 201657Z 24009KT 08/M02 A3014 RMK A01 T00791018  RH  050%=      5-min Rain = 0
KBR1 201658Z 25007KT 08/M02 A3014 RMK A01 T00781018  RH  051%=      5-min Rain = 0
KBR1 201659Z 24008KT 08/M02 A3014 RMK A01 T00781020  RH  050%=      5-min Rain = 0
KBR1 201700Z 24008KT 08/M02 A3014 RMK A01 T00791019  RH  050%=      5-min Rain = 0
KBR1 201701Z 24007KT 08/M02 A3014 RMK A01 T00821016  RH  050%=      5-min Rain = 0
KBR1 201702Z 25007KT 09/M01 A3014 RMK A01 T00851013  RH  050%=      5-min Rain = 0
KBR1 201703Z 25010KT 09/M02 A3014 RMK A01 T00871019  RH  047%=      5-min Rain = 0
KBR1 201704Z 25009KT 09/M02 A3014 RMK A01 T00861023  RH  046%=      5-min Rain = 0
KBR1 201705Z 25010KT 09/M02 A3014 RMK A01 T00861024  RH  046%=      5-min Rain = 0
KBR1 201706Z 25009KT 09/M03 A3014 RMK A01 T00851029  RH  044%=      5-min Rain = 0
KBR1 201707Z 24009KT 09/M03 A3014 RMK A01 T00851028  RH  045%=      5-min Rain = 0
KBR1 201708Z 24009KT 09/M02 A3014 RMK A01 T00851022  RH  047%=      5-min Rain = 0
KBR1 201709Z 24009KT 09/M02 A3014 RMK A01 T00871021  RH  047%=      5-min Rain = 0
KBR1 201710Z 25009KT 09/M02 A3014 RMK A01 T00891022  RH  046%=      5-min Rain = 0
KBR1 201711Z 25009KT 09/M03 A3014 RMK A01 T00891027  RH  044%=      5-min Rain = 0
KBR1 201712Z 26007KT 09/M02 A3014 RMK A01 T00891024  RH  045%=      5-min Rain = 0
KBR1 201713Z 24008KT 09/M02 A3014 RMK A01 T00891024  RH  045%=      5-min Rain = 0
KBR1 201714Z 24007KT 09/M02 A3014 RMK A01 T00891023  RH  045%=      5-min Rain = 0
KBR1 201715Z 23008KT 09/M02 A3014 RMK A01 T00891022  RH  046%=      5-min Rain = 0
KBR1 201716Z 24008KT 09/M02 A3014 RMK A01 T00901022  RH  045%=      5-min Rain = 0
KBR1 201717Z 24007KT 09/M02 A3014 RMK A01 T00911020  RH  046%=      5-min Rain = 0
KBR1 201718Z 25007KT 09/M02 A3014 RMK A01 T00921021  RH  045%=      5-min Rain = 0
KBR1 201719Z 24006KT 09/M02 A3014 RMK A01 T00921023  RH  044%=      5-min Rain = 0
KBR1 201720Z 24006KT 09/M02 A3014 RMK A01 T00941023  RH  044%=      5-min Rain = 0
KBR1 201721Z 25007KT 09/M03 A3014 RMK A01 T00941025  RH  043%=      5-min Rain = 0
KBR1 201722Z 26006KT 10/M03 A3014 RMK A01 T00951026  RH  042%=      5-min Rain = 0
KBR1 201723Z 24007KT 10/M02 A3013 RMK A01 T00971022  RH  043%=      5-min Rain = 0
KBR1 201724Z 26008KT 10/M03 A3013 RMK A01 T00991027  RH  041%=      5-min Rain = 0
KBR1 201725Z 25007KT 10/M03 A3013 RMK A01 T00991027  RH  041%=      5-min Rain = 0
KBR1 201726Z 24008KT 10/M03 A3013 RMK A01 T01001025  RH  042%=      5-min Rain = 0
KBR1 201727Z 23008KT 10/M02 A3013 RMK A01 T01011022  RH  042%=      5-min Rain = 0
KBR1 201728Z 24008KT 10/M02 A3013 RMK A01 T01001024  RH  042%=      5-min Rain = 0
KBR1 201729Z 23008KT 10/M02 A3013 RMK A01 T00991024  RH  042%=      5-min Rain = 0
KBR1 201730Z 23008KT 10/M03 A3013 RMK A01 T01001026  RH  041%=      5-min Rain = 0
KBR1 201731Z 24007KT 10/M03 A3013 RMK A01 T01001025  RH  042%=      5-min Rain = 0
KBR1 201732Z 23007KT 10/M02 A3013 RMK A01 T01021021  RH  042%=      5-min Rain = 0
KBR1 201733Z 23008KT 11/M02 A3013 RMK A01 T01051024  RH  040%=      5-min Rain = 0
KBR1 201734Z 22009KT 11/M03 A3013 RMK A01 T01051028  RH  039%=      5-min Rain = 0
KBR1 201735Z 23008KT 11/M03 A3013 RMK A01 T01051027  RH  040%=      5-min Rain = 0
KBR1 201736Z 24007KT 11/M03 A3013 RMK A01 T01051028  RH  039%=      5-min Rain = 0
KBR1 201737Z 23008KT 11/M03 A3013 RMK A01 T01051026  RH  040%=      5-min Rain = 0
KBR1 201738Z 22008KT 11/M03 A3013 RMK A01 T01051031  RH  038%=      5-min Rain = 0
KBR1 201739Z 23010KT 10/M03 A3013 RMK A01 T01041030  RH  039%=      5-min Rain = 0
KBR1 201740Z 24009KT 11/M03 A3013 RMK A01 T01051029  RH  039%=      5-min Rain = 0
KBR1 201741Z 23008KT 11/M03 A3013 RMK A01 T01051031  RH  038%=      5-min Rain = 0
KBR1 201742Z 24010KT 11/M03 A3013 RMK A01 T01051030  RH  039%=      5-min Rain = 0
KBR1 201743Z 24009KT 11/M03 A3013 RMK A01 T01051032  RH  038%=      5-min Rain = 0
KBR1 201744Z 24008KT 11/M03 A3013 RMK A01 T01051032  RH  038%=      5-min Rain = 0
KBR1 201745Z 23008KT 11/M03 A3013 RMK A01 T01061031  RH  038%=      5-min Rain = 0
KBR1 201746Z 23008KT 11/M03 A3013 RMK A01 T01071030  RH  038%=      5-min Rain = 0
KBR1 201747Z 23010KT 11/M03 A3013 RMK A01 T01091026  RH  039%=      5-min Rain = 0
KBR1 201748Z 24008KT 11/M03 A3013 RMK A01 T01101028  RH  038%=      5-min Rain = 0
KBR1 201749Z 24008KT 11/M03 A3013 RMK A01 T01091031  RH  037%=      5-min Rain = 0
KBR1 201750Z 24007KT 11/M03 A3012 RMK A01 T01081032  RH  037%=      5-min Rain = 0
KBR1 201751Z 23008KT 11/M03 A3012 RMK A01 T01091027  RH  039%=      5-min Rain = 0
KBR1 201752Z 22008KT 11/M03 A3012 RMK A01 T01101030  RH  037%=      5-min Rain = 0
KBR1 201753Z 23009KT 11/M03 A3012 RMK A01 T01101032  RH  037%=      5-min Rain = 0
KBR1 201754Z 24010KT 11/M03 A3012 RMK A01 T01111033  RH  037%=      5-min Rain = 0
KBR1 201755Z 24008KT 11/M03 A3012 RMK A01 T01111034  RH  036%=      5-min Rain = 0
KBR1 201756Z 24007KT 11/M04 A3012 RMK A01 T01101036  RH  036%=      5-min Rain = 0
KBR1 201757Z 23007KT 11/M03 A3012 RMK A01 T01101033  RH  036%=      5-min Rain = 0
KBR1 201758Z 25006KT 11/M03 A3012 RMK A01 T01111032  RH  037%=      5-min Rain = 0
KBR1 201759Z 23006KT 11/M03 A3012 RMK A01 T01121033  RH  036%=      5-min Rain = 0
KBR1 201800Z 24008KT 11/M03 A3012 RMK A01 T01131034  RH  036%=      5-min Rain = 0
KBR1 201801Z 24008KT 11/M04 A3012 RMK A01 T01141035  RH  035%=      5-min Rain = 0
KBR1 201802Z 23008KT 11/M04 A3012 RMK A01 T01141035  RH  035%=      5-min Rain = 0
KBR1 201803Z 23007KT 11/M04 A3012 RMK A01 T01131039  RH  034%=      5-min Rain = 0
KBR1 201804Z 23008KT 11/M04 A3012 RMK A01 T01131037  RH  035%=      5-min Rain = 0
KBR1 201805Z 23008KT 11/M04 A3012 RMK A01 T01131040  RH  034%=      5-min Rain = 0
KBR1 201806Z 23007KT 11/M04 A3012 RMK A01 T01131038  RH  035%=      5-min Rain = 0
KBR1 201807Z 22009KT 11/M04 A3012 RMK A01 T01131038  RH  034%=      5-min Rain = 0
KBR1 201808Z 22009KT 11/M04 A3012 RMK A01 T01131039  RH  034%=      5-min Rain = 0
KBR1 201809Z 23008KT 11/M04 A3012 RMK A01 T01131037  RH  035%=      5-min Rain = 0
KBR1 201810Z 23009KT 11/M04 A3012 RMK A01 T01141035  RH  035%=      5-min Rain = 0
KBR1 201811Z 23007KT 11/M04 A3012 RMK A01 T01141035  RH  035%=      5-min Rain = 0
KBR1 201812Z 24007KT 11/M03 A3012 RMK A01 T01141034  RH  035%=      5-min Rain = 0
KBR1 201813Z 24006KT 12/M04 A3012 RMK A01 T01151037  RH  034%=      5-min Rain = 0
KBR1 201814Z 22007KT 12/M04 A3012 RMK A01 T01151039  RH  034%=      5-min Rain = 0
KBR1 201815Z 23007KT 12/M04 A3012 RMK A01 T01161039  RH  034%=      5-min Rain = 0
KBR1 201816Z 23006KT 12/M04 A3012 RMK A01 T01161035  RH  035%=      5-min Rain = 0
KBR1 201817Z 22007KT 12/M04 A3012 RMK A01 T01171035  RH  034%=      5-min Rain = 0
KBR1 201818Z 24006KT 12/M04 A3012 RMK A01 T01171036  RH  034%=      5-min Rain = 0
KBR1 201819Z 23006KT 12/M03 A3012 RMK A01 T01171034  RH  035%=      5-min Rain = 0
KBR1 201820Z 22008KT 12/M03 A3011 RMK A01 T01181032  RH  035%=      5-min Rain = 0
KBR1 201821Z 22007KT 12/M03 A3011 RMK A01 T01191034  RH  034%=      5-min Rain = 0
KBR1 201822Z 22005KT 12/M04 A3011 RMK A01 T01191035  RH  034%=      5-min Rain = 0
KBR1 201823Z 22006KT 12/M03 A3011 RMK A01 T01191034  RH  034%=      5-min Rain = 0
KBR1 201824Z 22007KT 12/M04 A3011 RMK A01 T01181035  RH  034%=      5-min Rain = 0
KBR1 201825Z 23006KT 12/M03 A3011 RMK A01 T01191033  RH  034%=      5-min Rain = 0
KBR1 201826Z 22004KT 12/M04 A3011 RMK A01 T01191036  RH  034%=      5-min Rain = 0
KBR1 201827Z 21006KT 12/M03 A3011 RMK A01 T01211029  RH  035%=      5-min Rain = 0
KBR1 201828Z 22007KT 12/M03 A3011 RMK A01 T01221031  RH  034%=      5-min Rain = 0
KBR1 201829Z 21008KT 12/M04 A3011 RMK A01 T01221037  RH  033%=      5-min Rain = 0
KBR1 201830Z 23006KT 12/M04 A3011 RMK A01 T01211036  RH  033%=      5-min Rain = 0
KBR1 201831Z 23005KT 12/M03 A3011 RMK A01 T01221033  RH  034%=      5-min Rain = 0
KBR1 201832Z 20004KT 12/M03 A3011 RMK A01 T01221033  RH  034%=      5-min Rain = 0
KBR1 201833Z 20004KT 12/M04 A3011 RMK A01 T01221035  RH  033%=      5-min Rain = 0
KBR1 201834Z 21005KT 12/M03 A3011 RMK A01 T01231029  RH  035%=      5-min Rain = 0
KBR1 201835Z 20007KT 12/M03 A3011 RMK A01 T01241028  RH  035%=      5-min Rain = 0
KBR1 201836Z 21007KT 13/M03 A301 RMK A01 T01261025  RH  035%=      5-min Rain = 0
KBR1 201837Z 22006KT 13/M03 A301 RMK A01 T01261031  RH  033%=      5-min Rain = 0
KBR1 201838Z 22006KT 12/M03 A301 RMK A01 T01241034  RH  033%=      5-min Rain = 0
KBR1 201839Z 22006KT 12/M03 A301 RMK A01 T01241030  RH  034%=      5-min Rain = 0
KBR1 201840Z 22005KT 12/M03 A301 RMK A01 T01241033  RH  033%=      5-min Rain = 0
KBR1 201841Z 21007KT 13/M03 A301 RMK A01 T01251030  RH  034%=      5-min Rain = 0
KBR1 201842Z 21006KT 13/M03 A301 RMK A01 T01251029  RH  034%=      5-min Rain = 0
KBR1 201843Z 20007KT 13/M03 A301 RMK A01 T01251025  RH  035%=      5-min Rain = 0
KBR1 201844Z 20005KT 13/M03 A301 RMK A01 T01261032  RH  033%=      5-min Rain = 0
KBR1 201845Z 19006KT 12/M03 A301 RMK A01 T01241032  RH  034%=      5-min Rain = 0
KBR1 201846Z 21005KT 12/M03 A301 RMK A01 T01231030  RH  034%=      5-min Rain = 0
KBR1 201847Z 21007KT 12/M03 A301 RMK A01 T01241031  RH  034%=      5-min Rain = 0
KBR1 201848Z 21008KT 13/M03 A301 RMK A01 T01251031  RH  033%=      5-min Rain = 0
KBR1 201849Z 20006KT 13/M03 A301 RMK A01 T01261032  RH  033%=      5-min Rain = 0
KBR1 201850Z 20006KT 13/M03 A301 RMK A01 T01261031  RH  034%=      5-min Rain = 0
KBR1 201851Z 19006KT 13/M03 A301 RMK A01 T01261030  RH  034%=      5-min Rain = 0
KBR1 201852Z 20007KT 13/M03 A301 RMK A01 T01261031  RH  033%=      5-min Rain = 0
KBR1 201853Z 21007KT 13/M03 A301 RMK A01 T01281029  RH  034%=      5-min Rain = 0
KBR1 201854Z 20007KT 13/M03 A301 RMK A01 T01291028  RH  034%=      5-min Rain = 0
KBR1 201855Z 20006KT 13/M03 A301 RMK A01 T01291030  RH  033%=      5-min Rain = 0
KBR1 201856Z 21007KT 13/M03 A3009 RMK A01 T01281030  RH  033%=      5-min Rain = 0
KBR1 201857Z 21006KT 13/M03 A3009 RMK A01 T01291029  RH  033%=      5-min Rain = 0
KBR1 201858Z 22005KT 13/M03 A3009 RMK A01 T01301029  RH  033%=      5-min Rain = 0
KBR1 201859Z 23006KT 13/M03 A3009 RMK A01 T01301030  RH  033%=      5-min Rain = 0
KBR1 201900Z 22006KT 13/M03 A3009 RMK A01 T01311031  RH  032%=      5-min Rain = 0
KBR1 201901Z 21006KT 13/M03 A3009 RMK A01 T01301031  RH  033%=      5-min Rain = 0
KBR1 201902Z 20004KT 13/M03 A3009 RMK A01 T01301032  RH  032%=      5-min Rain = 0
KBR1 201903Z 21006KT 13/M03 A3009 RMK A01 T01291030  RH  033%=      5-min Rain = 0
KBR1 201904Z 22005KT 13/M03 A3009 RMK A01 T01311029  RH  033%=      5-min Rain = 0
KBR1 201905Z 21006KT 13/M03 A3009 RMK A01 T01311031  RH  032%=      5-min Rain = 0
KBR1 201906Z 22005KT 13/M03 A3009 RMK A01 T01311030  RH  032%=      5-min Rain = 0
KBR1 201907Z 22006KT 13/M03 A3009 RMK A01 T01321030  RH  032%=      5-min Rain = 0
KBR1 201908Z 21005KT 13/M03 A3009 RMK A01 T01301034  RH  032%=      5-min Rain = 0
KBR1 201909Z 21007KT 13/M03 A3009 RMK A01 T01311029  RH  033%=      5-min Rain = 0
KBR1 201910Z 23007KT 13/M03 A3009 RMK A01 T01321028  RH  033%=      5-min Rain = 0
KBR1 201911Z 22005KT 13/M03 A3009 RMK A01 T01331028  RH  033%=      5-min Rain = 0
KBR1 201912Z 21004KT 13/M03 A3009 RMK A01 T01331030  RH  032%=      5-min Rain = 0
KBR1 201913Z 21005KT 13/M03 A3009 RMK A01 T01331027  RH  033%=      5-min Rain = 0
KBR1 201914Z 20008KT 13/M03 A3009 RMK A01 T01331028  RH  033%=      5-min Rain = 0
KBR1 201915Z 20007KT 13/M03 A3008 RMK A01 T01311029  RH  033%=      5-min Rain = 0
KBR1 201916Z 22007KT 13/M03 A3008 RMK A01 T01311028  RH  033%=      5-min Rain = 0
KBR1 201917Z 21006KT 13/M03 A3008 RMK A01 T01311028  RH  033%=      5-min Rain = 0
KBR1 201918Z 21007KT 13/M03 A3008 RMK A01 T01341028  RH  032%=      5-min Rain = 0
KBR1 201919Z 21004KT 13/M03 A3008 RMK A01 T01341029  RH  032%=      5-min Rain = 0
KBR1 201920Z 21007KT 14/M03 A3008 RMK A01 T01361025  RH  033%=      5-min Rain = 0
KBR1 201921Z 21005KT 14/M03 A3008 RMK A01 T01381028  RH  032%=      5-min Rain = 0
KBR1 201922Z 22006KT 14/M03 A3008 RMK A01 T01381026  RH  032%=      5-min Rain = 0
KBR1 201923Z 22005KT 14/M03 A3008 RMK A01 T01401027  RH  031%=      5-min Rain = 0
KBR1 201924Z 20005KT 14/M03 A3007 RMK A01 T01391031  RH  031%=      5-min Rain = 0
KBR1 201925Z 20007KT 14/M03 A3007 RMK A01 T01371030  RH  031%=      5-min Rain = 0
KBR1 201926Z 21008KT 14/M03 A3007 RMK A01 T01381029  RH  031%=      5-min Rain = 0
KBR1 201927Z 21006KT 14/M03 A3007 RMK A01 T01391032  RH  030%=      5-min Rain = 0
KBR1 201928Z 19003KT 14/M03 A3007 RMK A01 T01371034  RH  030%=      5-min Rain = 0
KBR1 201929Z 19004KT 14/M03 A3007 RMK A01 T01371034  RH  030%=      5-min Rain = 0
KBR1 201930Z 21004KT 14/M03 A3007 RMK A01 T01371032  RH  031%=      5-min Rain = 0
KBR1 201931Z 20005KT 14/M03 A3007 RMK A01 T01381032  RH  031%=      5-min Rain = 0
KBR1 201932Z 21004KT 14/M03 A3007 RMK A01 T01381031  RH  031%=      5-min Rain = 0
KBR1 201933Z 22006KT 14/M03 A3007 RMK A01 T01381029  RH  031%=      5-min Rain = 0
KBR1 201934Z 22006KT 14/M03 A3007 RMK A01 T01411028  RH  031%=      5-min Rain = 0
KBR1 201935Z 20005KT 14/M03 A3007 RMK A01 T01411028  RH  031%=      5-min Rain = 0
KBR1 201936Z 21008KT 14/M03 A3007 RMK A01 T01411029  RH  031%=      5-min Rain = 0
KBR1 201937Z 21006KT 14/M03 A3007 RMK A01 T01411031  RH  030%=      5-min Rain = 0
KBR1 201938Z 20006KT 14/M03 A3007 RMK A01 T01411032  RH  030%=      5-min Rain = 0
KBR1 201939Z 20006KT 14/M03 A3007 RMK A01 T01421026  RH  031%=      5-min Rain = 0
KBR1 201940Z 21005KT 14/M03 A3007 RMK A01 T01441028  RH  030%=      5-min Rain = 0
KBR1 201941Z 21006KT 14/M03 A3006 RMK A01 T01441030  RH  030%=      5-min Rain = 0
KBR1 201942Z 20006KT 14/M03 A3006 RMK A01 T01421030  RH  030%=      5-min Rain = 0
KBR1 201943Z 21007KT 14/M03 A3006 RMK A01 T01421031  RH  030%=      5-min Rain = 0
KBR1 201944Z 22008KT 14/M03 A3006 RMK A01 T01431031  RH  030%=      5-min Rain = 0
KBR1 201945Z 21007KT 14/M03 A3006 RMK A01 T01431031  RH  030%=      5-min Rain = 0
KBR1 201946Z 22008KT 14/M03 A3006 RMK A01 T01421033  RH  030%=      5-min Rain = 0
KBR1 201947Z 20008KT 14/M03 A3006 RMK A01 T01441027  RH  031%=      5-min Rain = 0
KBR1 201948Z 20007KT 15/M03 A3005 RMK A01 T01451031  RH  029%=      5-min Rain = 0
KBR1 201949Z 21006KT 15/M03 A3005 RMK A01 T01451031  RH  029%=      5-min Rain = 0
KBR1 201950Z 21006KT 15/M03 A3005 RMK A01 T01451034  RH  029%=      5-min Rain = 0
KBR1 201951Z 21009KT 14/M04 A3005 RMK A01 T01431035  RH  029%=      5-min Rain = 0
KBR1 201952Z 21007KT 14/M03 A3005 RMK A01 T01421034  RH  029%=      5-min Rain = 0
KBR1 201953Z 20007KT 14/M03 A3005 RMK A01 T01421032  RH  030%=      5-min Rain = 0
KBR1 201954Z 20008KT 14/M03 A3005 RMK A01 T01431031  RH  030%=      5-min Rain = 0
KBR1 201955Z 20010KT 14/M03 A3005 RMK A01 T01421033  RH  030%=      5-min Rain = 0
KBR1 201956Z 21009KT 14/M03 A3005 RMK A01 T01411031  RH  030%=      5-min Rain = 0
KBR1 201957Z 21009KT 14/M03 A3005 RMK A01 T01421030  RH  030%=      5-min Rain = 0
KBR1 201958Z 20007KT 14/M03 A3005 RMK A01 T01421030  RH  030%=      5-min Rain = 0
KBR1 201959Z 20007KT 14/M03 A3005 RMK A01 T01421029  RH  031%=      5-min Rain = 0
KBR1 202000Z 20008KT 14/M03 A3005 RMK A01 T01431027  RH  031%=      5-min Rain = 0
KBR1 202001Z 20008KT 14/M03 A3005 RMK A01 T01431030  RH  030%=      5-min Rain = 0
KBR1 202002Z 20009KT 14/M03 A3005 RMK A01 T01431028  RH  030%=      5-min Rain = 0
KBR1 202003Z 20008KT 14/M03 A3005 RMK A01 T01431030  RH  030%=      5-min Rain = 0
KBR1 202004Z 19008KT 14/M03 A3005 RMK A01 T01431031  RH  030%=      5-min Rain = 0
KBR1 202005Z 19009KT 14/M03 A3005 RMK A01 T01411031  RH  030%=      5-min Rain = 0
KBR1 202006Z 20009KT 14/M03 A3005 RMK A01 T01401030  RH  031%=      5-min Rain = 0
KBR1 202007Z 20009KT 14/M03 A3005 RMK A01 T01411030  RH  030%=      5-min Rain = 0
KBR1 202008Z 19008KT 14/M03 A3004 RMK A01 T01401033  RH  030%=      5-min Rain = 0
KBR1 202009Z 20009KT 14/M03 A3004 RMK A01 T01391029  RH  031%=      5-min Rain = 0
KBR1 202010Z 22007KT 14/M03 A3004 RMK A01 T01421027  RH  031%=      5-min Rain = 0
KBR1 202011Z 22008KT 14/M03 A3004 RMK A01 T01441027  RH  031%=      5-min Rain = 0
KBR1 202012Z 20008KT 14/M03 A3004 RMK A01 T01431029  RH  030%=      5-min Rain = 0
KBR1 202013Z 19009KT 14/M03 A3004 RMK A01 T01431028  RH  031%=      5-min Rain = 0
KBR1 202014Z 21007KT 14/M03 A3004 RMK A01 T01441026  RH  031%=      5-min Rain = 0
KBR1 202015Z 20007KT 15/M02 A3004 RMK A01 T01471023  RH  031%=      5-min Rain = 0
KBR1 202016Z 20008KT 15/M03 A3004 RMK A01 T01471029  RH  030%=      5-min Rain = 0
KBR1 202017Z 20008KT 15/M03 A3004 RMK A01 T01461031  RH  029%=      5-min Rain = 0
KBR1 202018Z 20007KT 15/M03 A3004 RMK A01 T01461027  RH  030%=      5-min Rain = 0
KBR1 202019Z 21008KT 15/M03 A3004 RMK A01 T01471028  RH  030%=      5-min Rain = 0
KBR1 202020Z 22008KT 15/M04 A3004 RMK A01 T01461037  RH  028%=      5-min Rain = 0
KBR1 202021Z 21008KT 14/M04 A3004 RMK A01 T01441038  RH  028%=      5-min Rain = 0
KBR1 202022Z 19007KT 14/M03 A3004 RMK A01 T01441033  RH  029%=      5-min Rain = 0
KBR1 202023Z 20008KT 14/M03 A3004 RMK A01 T01431031  RH  030%=      5-min Rain = 0
KBR1 202024Z 22007KT 14/M04 A3004 RMK A01 T01431037  RH  028%=      5-min Rain = 0
KBR1 202025Z 24007KT 14/M04 A3004 RMK A01 T01441038  RH  028%=      5-min Rain = 0
KBR1 202026Z 21008KT 14/M03 A3004 RMK A01 T01431034  RH  029%=      5-min Rain = 0
KBR1 202027Z 21009KT 14/M03 A3004 RMK A01 T01441034  RH  029%=      5-min Rain = 0
KBR1 202028Z 20011KT 15/M04 A3004 RMK A01 T01461036  RH  028%=      5-min Rain = 0
KBR1 202029Z 21011KT 15/M04 A3003 RMK A01 T01451037  RH  028%=      5-min Rain = 0
KBR1 202030Z 21012KT 14/M04 A3003 RMK A01 T01441037  RH  029%=      5-min Rain = 0
KBR1 202031Z 22009KT 14/M04 A3003 RMK A01 T01441036  RH  029%=      5-min Rain = 0
KBR1 202032Z 21011KT 14/M04 A3003 RMK A01 T01431038  RH  028%=      5-min Rain = 0
KBR1 202033Z 22011KT 14/M04 A3003 RMK A01 T01431038  RH  028%=      5-min Rain = 0
KBR1 202034Z 21011KT 15/M03 A3003 RMK A01 T01451033  RH  029%=      5-min Rain = 0
KBR1 202035Z 21011KT 15/M03 A3003 RMK A01 T01451033  RH  029%=      5-min Rain = 0
KBR1 202036Z 22011KT 15/M04 A3003 RMK A01 T01461036  RH  028%=      5-min Rain = 0
KBR1 202037Z 21010KT 15/M04 A3003 RMK A01 T01461042  RH  027%=      5-min Rain = 0
KBR1 202038Z 22009KT 15/M05 A3003 RMK A01 T01461046  RH  026%=      5-min Rain = 0
KBR1 202039Z 22009KT 15/M04 A3003 RMK A01 T01461043  RH  027%=      5-min Rain = 0
KBR1 202040Z 22009KT 15/M04 A3003 RMK A01 T01471044  RH  027%=      5-min Rain = 0
KBR1 202041Z 22011KT 15/M04 A3003 RMK A01 T01461041  RH  027%=      5-min Rain = 0
KBR1 202042Z 22010KT 15/M04 A3003 RMK A01 T01461043  RH  027%=      5-min Rain = 0
KBR1 202043Z 21010KT 15/M04 A3003 RMK A01 T01461039  RH  028%=      5-min Rain = 0
KBR1 202044Z 22011KT 15/M04 A3003 RMK A01 T01451038  RH  028%=      5-min Rain = 0
KBR1 202045Z 23010KT 15/M04 A3003 RMK A01 T01451042  RH  027%=      5-min Rain = 0
KBR1 202046Z 22009KT 15/M04 A3003 RMK A01 T01451042  RH  027%=      5-min Rain = 0
KBR1 202047Z 22012KT 15/M04 A3003 RMK A01 T01461040  RH  027%=      5-min Rain = 0
KBR1 202048Z 22012KT 15/M04 A3003 RMK A01 T01461040  RH  027%=      5-min Rain = 0
KBR1 202049Z 22010KT 15/M04 A3003 RMK A01 T01451036  RH  028%=      5-min Rain = 0
KBR1 202050Z 21010KT 15/M04 A3003 RMK A01 T01451036  RH  028%=      5-min Rain = 0
KBR1 202051Z 21009KT 15/M04 A3003 RMK A01 T01451036  RH  028%=      5-min Rain = 0
KBR1 202052Z 21010KT 15/M04 A3003 RMK A01 T01461036  RH  028%=      5-min Rain = 0
KBR1 202053Z 22011KT 15/M04 A3003 RMK A01 T01451041  RH  027%=      5-min Rain = 0
KBR1 202054Z 22010KT 14/M04 A3003 RMK A01 T01431039  RH  028%=      5-min Rain = 0
KBR1 202055Z 22011KT 14/M04 A3003 RMK A01 T01421041  RH  028%=      5-min Rain = 0
KBR1 202056Z 23011KT 14/M04 A3003 RMK A01 T01411042  RH  028%=      5-min Rain = 0
KBR1 202057Z 23012KT 14/M05 A3003 RMK A01 T01411049  RH  026%=      5-min Rain = 0
KBR1 202058Z 23010KT 14/M05 A3003 RMK A01 T01421049  RH  026%=      5-min Rain = 0
KBR1 202059Z 22009KT 14/M05 A3002 RMK A01 T01421048  RH  026%=      5-min Rain = 0
KBR1 202100Z 23009KT 14/M05 A3002 RMK A01 T01431049  RH  026%=      5-min Rain = 0
KBR1 202101Z 22009KT 14/M04 A3002 RMK A01 T01441044  RH  027%=      5-min Rain = 0
KBR1 202102Z 23012KT 15/M05 A3002 RMK A01 T01461046  RH  026%=      5-min Rain = 0
KBR1 202103Z 23010KT 15/M05 A3002 RMK A01 T01461052  RH  025%=      5-min Rain = 0
KBR1 202104Z 22010KT 15/M05 A3002 RMK A01 T01451052  RH  025%=      5-min Rain = 0
KBR1 202105Z 22010KT 15/M05 A3002 RMK A01 T01451048  RH  026%=      5-min Rain = 0
KBR1 202106Z 23008KT 15/M04 A3002 RMK A01 T01461044  RH  027%=      5-min Rain = 0
KBR1 202107Z 21009KT 15/M04 A3002 RMK A01 T01471042  RH  027%=      5-min Rain = 0
KBR1 202108Z 21010KT 15/M05 A3002 RMK A01 T01471045  RH  026%=      5-min Rain = 0
KBR1 202109Z 22009KT 15/M05 A3002 RMK A01 T01461045  RH  026%=      5-min Rain = 0
KBR1 202110Z 23009KT 15/M05 A3002 RMK A01 T01471045  RH  026%=      5-min Rain = 0
KBR1 202111Z 21009KT 15/M05 A3002 RMK A01 T01461047  RH  026%=      5-min Rain = 0
KBR1 202112Z 21010KT 15/M05 A3002 RMK A01 T01461048  RH  026%=      5-min Rain = 0
KBR1 202113Z 21010KT 15/M05 A3002 RMK A01 T01471050  RH  025%=      5-min Rain = 0
KBR1 202114Z 21011KT 15/M05 A3002 RMK A01 T01461052  RH  025%=      5-min Rain = 0
KBR1 202115Z 22010KT 15/M05 A3002 RMK A01 T01451046  RH  026%=      5-min Rain = 0
KBR1 202116Z 22009KT 14/M05 A3002 RMK A01 T01441045  RH  027%=      5-min Rain = 0
KBR1 202117Z 20010KT 15/M04 A3002 RMK A01 T01461039  RH  028%=      5-min Rain = 0
KBR1 202118Z 19010KT 15/M04 A3001 RMK A01 T01461042  RH  027%=      5-min Rain = 0
KBR1 202119Z 21012KT 15/M05 A3001 RMK A01 T01451045  RH  026%=      5-min Rain = 0
KBR1 202120Z 22011KT 15/M05 A3002 RMK A01 T01451049  RH  026%=      5-min Rain = 0
KBR1 202121Z 22009KT 14/M05 A3002 RMK A01 T01441046  RH  026%=      5-min Rain = 0
KBR1 202122Z 22010KT 14/M05 A3002 RMK A01 T01441047  RH  026%=      5-min Rain = 0
KBR1 202123Z 22010KT 14/M05 A3002 RMK A01 T01441048  RH  026%=      5-min Rain = 0
KBR1 202124Z 22010KT 14/M05 A3002 RMK A01 T01431051  RH  026%=      5-min Rain = 0
KBR1 202125Z 22010KT 14/M05 A3001 RMK A01 T01431051  RH  026%=      5-min Rain = 0
KBR1 202126Z 22012KT 14/M05 A3002 RMK A01 T01421050  RH  026%=      5-min Rain = 0
KBR1 202127Z 22011KT 14/M05 A3002 RMK A01 T01411047  RH  027%=      5-min Rain = 0
KBR1 202128Z 22010KT 14/M04 A3002 RMK A01 T01411043  RH  028%=      5-min Rain = 0
KBR1 202129Z 22012KT 14/M05 A3002 RMK A01 T01431046  RH  027%=      5-min Rain = 0
KBR1 202130Z 22011KT 14/M05 A3002 RMK A01 T01421047  RH  027%=      5-min Rain = 0
KBR1 202131Z 20012KT 14/M04 A3002 RMK A01 T01421044  RH  027%=      5-min Rain = 0
KBR1 202132Z 21012KT 14/M05 A3002 RMK A01 T01421048  RH  027%=      5-min Rain = 0
KBR1 202133Z 21011KT 14/M05 A3002 RMK A01 T01411047  RH  027%=      5-min Rain = 0
KBR1 202134Z 21012KT 14/M05 A3002 RMK A01 T01411045  RH  027%=      5-min Rain = 0
KBR1 202135Z 21012KT 14/M04 A3002 RMK A01 T01411044  RH  027%=      5-min Rain = 0
KBR1 202136Z 22014KT 14/M04 A3002 RMK A01 T01411042  RH  028%=      5-min Rain = 0
KBR1 202137Z 21012KT 14/M04 A3002 RMK A01 T01411044  RH  028%=      5-min Rain = 0
KBR1 202138Z 21012KT 14/M05 A3002 RMK A01 T01401045  RH  027%=      5-min Rain = 0
KBR1 202139Z 21011KT 14/M04 A3002 RMK A01 T01401044  RH  027%=      5-min Rain = 0
KBR1 202140Z 22011KT 14/M05 A3002 RMK A01 T01411046  RH  027%=      5-min Rain = 0
KBR1 202141Z 22011KT 14/M05 A3002 RMK A01 T01401046  RH  027%=      5-min Rain = 0
KBR1 202142Z 23011KT 14/M05 A3002 RMK A01 T01391048  RH  027%=      5-min Rain = 0
KBR1 202143Z 23012KT 14/M05 A3002 RMK A01 T01391047  RH  027%=      5-min Rain = 0
KBR1 202144Z 22012KT 14/M04 A3002 RMK A01 T01391044  RH  028%=      5-min Rain = 0
KBR1 202145Z 21012KT 14/M04 A3002 RMK A01 T01381043  RH  028%=      5-min Rain = 0
KBR1 202146Z 21013KT 14/M04 A3002 RMK A01 T01391043  RH  028%=      5-min Rain = 0
KBR1 202147Z 21012KT 14/M04 A3002 RMK A01 T01381043  RH  028%=      5-min Rain = 0
KBR1 202148Z 21010KT 14/M04 A3002 RMK A01 T01381041  RH  029%=      5-min Rain = 0
KBR1 202149Z 24011KT 14/M04 A3002 RMK A01 T01381043  RH  028%=      5-min Rain = 0
KBR1 202150Z 23009KT 14/M05 A3002 RMK A01 T01371045  RH  028%=      5-min Rain = 0
KBR1 202151Z 23010KT 14/M04 A3002 RMK A01 T01361044  RH  028%=      5-min Rain = 0
KBR1 202152Z 23010KT 14/M05 A3002 RMK A01 T01361045  RH  028%=      5-min Rain = 0
KBR1 202153Z 23012KT 14/M05 A3002 RMK A01 T01371048  RH  027%=      5-min Rain = 0
KBR1 202154Z 22010KT 14/M05 A3002 RMK A01 T01361050  RH  027%=      5-min Rain = 0
KBR1 202155Z 22011KT 14/M05 A3002 RMK A01 T01351049  RH  027%=      5-min Rain = 0
KBR1 202156Z 22011KT 14/M05 A3002 RMK A01 T01351049  RH  028%=      5-min Rain = 0
KBR1 202157Z 21010KT 13/M05 A3002 RMK A01 T01341049  RH  028%=      5-min Rain = 0
KBR1 202158Z 23010KT 14/M05 A3002 RMK A01 T01351046  RH  028%=      5-min Rain = 0
KBR1 202159Z 22010KT 14/M05 A3002 RMK A01 T01361047  RH  028%=      5-min Rain = 0
KBR1 202200Z 22008KT 14/M05 A3002 RMK A01 T01371051  RH  027%=      5-min Rain = 0
KBR1 202201Z 21010KT 14/M05 A3002 RMK A01 T01371046  RH  028%=      5-min Rain = 0
KBR1 202202Z 21011KT 14/M05 A3002 RMK A01 T01381049  RH  027%=      5-min Rain = 0
KBR1 202203Z 22009KT 14/M05 A3002 RMK A01 T01371048  RH  027%=      5-min Rain = 0
KBR1 202204Z 21010KT 14/M05 A3002 RMK A01 T01371046  RH  028%=      5-min Rain = 0
KBR1 202205Z 21011KT 14/M04 A3002 RMK A01 T01371044  RH  028%=      5-min Rain = 0
KBR1 202206Z 22010KT 14/M05 A3002 RMK A01 T01371045  RH  028%=      5-min Rain = 0
KBR1 202207Z 22012KT 14/M05 A3002 RMK A01 T01361045  RH  028%=      5-min Rain = 0
KBR1 202208Z 22011KT 14/M04 A3002 RMK A01 T01351044  RH  028%=      5-min Rain = 0
KBR1 202209Z 22011KT 14/M04 A3002 RMK A01 T01351044  RH  029%=      5-min Rain = 0
KBR1 202210Z 22010KT 13/M05 A3002 RMK A01 T01341046  RH  028%=      5-min Rain = 0
KBR1 202211Z 21010KT 13/M04 A3002 RMK A01 T01341044  RH  029%=      5-min Rain = 0
KBR1 202212Z 21011KT 13/M04 A3002 RMK A01 T01341044  RH  029%=      5-min Rain = 0
KBR1 202213Z 21010KT 13/M05 A3002 RMK A01 T01331046  RH  028%=      5-min Rain = 0
KBR1 202214Z 21008KT 13/M04 A3002 RMK A01 T01331043  RH  029%=      5-min Rain = 0
KBR1 202215Z 21009KT 13/M04 A3002 RMK A01 T01341042  RH  029%=      5-min Rain = 0
KBR1 202216Z 21010KT 13/M04 A3002 RMK A01 T01341044  RH  029%=      5-min Rain = 0
KBR1 202217Z 21012KT 13/M05 A3002 RMK A01 T01331046  RH  028%=      5-min Rain = 0
KBR1 202218Z 21009KT 13/M05 A3002 RMK A01 T01321048  RH  028%=      5-min Rain = 0
KBR1 202219Z 21010KT 13/M05 A3002 RMK A01 T01311045  RH  029%=      5-min Rain = 0
KBR1 202220Z 21009KT 13/M05 A3002 RMK A01 T01311046  RH  029%=      5-min Rain = 0
KBR1 202221Z 22011KT 13/M05 A3002 RMK A01 T01311045  RH  029%=      5-min Rain = 0
KBR1 202222Z 22009KT 13/M05 A3002 RMK A01 T01311048  RH  028%=      5-min Rain = 0
KBR1 202223Z 22009KT 13/M05 A3002 RMK A01 T01301048  RH  029%=      5-min Rain = 0
KBR1 202224Z 21011KT 13/M05 A3002 RMK A01 T01301048  RH  029%=      5-min Rain = 0
KBR1 202225Z 21009KT 13/M05 A3002 RMK A01 T01301049  RH  028%=      5-min Rain = 0
KBR1 202226Z 22010KT 13/M05 A3002 RMK A01 T01301050  RH  028%=      5-min Rain = 0
KBR1 202227Z 22009KT 13/M05 A3002 RMK A01 T01291048  RH  029%=      5-min Rain = 0
KBR1 202228Z 22009KT 13/M05 A3002 RMK A01 T01301048  RH  029%=      5-min Rain = 0
KBR1 202229Z 22008KT 13/M05 A3002 RMK A01 T01301048  RH  029%=      5-min Rain = 0
KBR1 202230Z 22010KT 13/M05 A3001 RMK A01 T01301051  RH  028%=      5-min Rain = 0
KBR1 202231Z 22010KT 13/M05 A3001 RMK A01 T01301052  RH  028%=      5-min Rain = 0
KBR1 202232Z 22010KT 13/M05 A3001 RMK A01 T01291053  RH  028%=      5-min Rain = 0
KBR1 202233Z 22010KT 13/M05 A3001 RMK A01 T01291054  RH  028%=      5-min Rain = 0
KBR1 202234Z 22010KT 13/M05 A3001 RMK A01 T01291054  RH  028%=      5-min Rain = 0
KBR1 202235Z 22009KT 13/M05 A3001 RMK A01 T01291054  RH  028%=      5-min Rain = 0
KBR1 202236Z 23008KT 13/M05 A3001 RMK A01 T01281054  RH  028%=      5-min Rain = 0
KBR1 202237Z 22008KT 13/M05 A3001 RMK A01 T01281052  RH  028%=      5-min Rain = 0
KBR1 202238Z 22007KT 13/M05 A3001 RMK A01 T01281050  RH  028%=      5-min Rain = 0
KBR1 202239Z 23006KT 13/M05 A3001 RMK A01 T01281049  RH  029%=      5-min Rain = 0
KBR1 202240Z 23007KT 13/M05 A3001 RMK A01 T01281050  RH  029%=      5-min Rain = 0
KBR1 202241Z 23008KT 13/M05 A3001 RMK A01 T01281054  RH  028%=      5-min Rain = 0
KBR1 202242Z 23008KT 13/M05 A3001 RMK A01 T01271052  RH  028%=      5-min Rain = 0
KBR1 202243Z 23007KT 13/M05 A3001 RMK A01 T01271053  RH  028%=      5-min Rain = 0
KBR1 202244Z 23007KT 13/M05 A3001 RMK A01 T01271052  RH  028%=      5-min Rain = 0
KBR1 202245Z 23007KT 13/M05 A3001 RMK A01 T01271052  RH  028%=      5-min Rain = 0
KBR1 202246Z 23007KT 13/M05 A3001 RMK A01 T01261052  RH  029%=      5-min Rain = 0
KBR1 202247Z 23008KT 13/M05 A3001 RMK A01 T01261051  RH  029%=      5-min Rain = 0
KBR1 202248Z 23008KT 13/M05 A3001 RMK A01 T01261052  RH  029%=      5-min Rain = 0
KBR1 202249Z 23007KT 13/M05 A3001 RMK A01 T01261050  RH  029%=      5-min Rain = 0
KBR1 202250Z 23007KT 13/M05 A3001 RMK A01 T01261048  RH  029%=      5-min Rain = 0
KBR1 202251Z 23006KT 13/M05 A3001 RMK A01 T01251048  RH  030%=      5-min Rain = 0
KBR1 202252Z 23006KT 13/M05 A3001 RMK A01 T01251049  RH  029%=      5-min Rain = 0
KBR1 202253Z 23005KT 13/M05 A3001 RMK A01 T01251048  RH  030%=      5-min Rain = 0
KBR1 202254Z 23005KT 12/M05 A3001 RMK A01 T01241047  RH  030%=      5-min Rain = 0
KBR1 202255Z 23004KT 12/M05 A3001 RMK A01 T01241046  RH  030%=      5-min Rain = 0
KBR1 202256Z 24005KT 12/M05 A30 RMK A01 T01241046  RH  030%=      5-min Rain = 0
KBR1 202257Z 24005KT 12/M05 A30 RMK A01 T01231045  RH  030%=      5-min Rain = 0
KBR1 202258Z 24005KT 12/M05 A30 RMK A01 T01231045  RH  030%=      5-min Rain = 0
KBR1 202259Z 24004KT 12/M05 A30 RMK A01 T01231046  RH  030%=      5-min Rain = 0
KBR1 202300Z 24004KT 12/M05 A30 RMK A01 T01231045  RH  031%=      5-min Rain = 0
KBR1 202301Z 24005KT 12/M05 A30 RMK A01 T01221045  RH  031%=      5-min Rain = 0
KBR1 202302Z 24005KT 12/M05 A30 RMK A01 T01221046  RH  031%=      5-min Rain = 0
KBR1 202303Z 24005KT 12/M05 A30 RMK A01 T01221045  RH  031%=      5-min Rain = 0
KBR1 202304Z 24005KT 12/M04 A30 RMK A01 T01221044  RH  031%=      5-min Rain = 0
KBR1 202305Z 24005KT 12/M04 A30 RMK A01 T01221044  RH  031%=      5-min Rain = 0
KBR1 202306Z 24004KT 12/M04 A30 RMK A01 T01221044  RH  031%=      5-min Rain = 0
KBR1 202307Z 24003KT 12/M04 A30 RMK A01 T01221042  RH  032%=      5-min Rain = 0
KBR1 202308Z 24003KT 12/M04 A30 RMK A01 T01211041  RH  032%=      5-min Rain = 0
KBR1 202309Z 24003KT 12/M04 A30 RMK A01 T01211042  RH  032%=      5-min Rain = 0
KBR1 202310Z 24003KT 12/M04 A30 RMK A01 T01211042  RH  032%=      5-min Rain = 0
KBR1 202311Z 24003KT 12/M04 A30 RMK A01 T01201042  RH  032%=      5-min Rain = 0
KBR1 202312Z 24003KT 12/M04 A30 RMK A01 T01211042  RH  032%=      5-min Rain = 0
KBR1 202313Z 24003KT 12/M04 A30 RMK A01 T01201042  RH  032%=      5-min Rain = 0
KBR1 202314Z 24003KT 12/M04 A30 RMK A01 T01201040  RH  032%=      5-min Rain = 0
KBR1 202315Z 24003KT 12/M04 A30 RMK A01 T01191041  RH  032%=      5-min Rain = 0
KBR1 202316Z 24003KT 12/M04 A30 RMK A01 T01191041  RH  032%=      5-min Rain = 0
KBR1 202317Z 24004KT 12/M04 A2999 RMK A01 T01191040  RH  033%=      5-min Rain = 0
KBR1 202318Z 24003KT 12/M04 A2999 RMK A01 T01181039  RH  033%=      5-min Rain = 0
KBR1 202319Z 24003KT 12/M04 A2999 RMK A01 T01181038  RH  033%=      5-min Rain = 0
KBR1 202320Z 24003KT 12/M04 A2999 RMK A01 T01171037  RH  034%=      5-min Rain = 0
KBR1 202321Z 24003KT 12/M04 A2999 RMK A01 T01171039  RH  033%=      5-min Rain = 0
KBR1 202322Z 24002KT 12/M04 A2999 RMK A01 T01171039  RH  033%=      5-min Rain = 0
KBR1 202323Z 24002KT 12/M04 A2999 RMK A01 T01171040  RH  033%=      5-min Rain = 0
KBR1 202324Z 23002KT 12/M04 A2999 RMK A01 T01171039  RH  033%=      5-min Rain = 0
KBR1 202325Z 23002KT 12/M04 A2999 RMK A01 T01171040  RH  033%=      5-min Rain = 0
KBR1 202326Z 23002KT 12/M04 A2999 RMK A01 T01171040  RH  033%=      5-min Rain = 0
KBR1 202327Z 23002KT 12/M04 A2999 RMK A01 T01171041  RH  033%=      5-min Rain = 0
KBR1 202328Z 23002KT 12/M04 A2999 RMK A01 T01161041  RH  033%=      5-min Rain = 0
KBR1 202329Z 23002KT 12/M04 A2999 RMK A01 T01161041  RH  033%=      5-min Rain = 0
KBR1 202330Z 23002KT 12/M04 A2999 RMK A01 T01161041  RH  033%=      5-min Rain = 0
KBR1 202331Z 23002KT 12/M04 A2999 RMK A01 T01151042  RH  033%=      5-min Rain = 0
KBR1 202332Z 23002KT 12/M04 A2999 RMK A01 T01151042  RH  033%=      5-min Rain = 0
KBR1 202333Z 23002KT 12/M04 A2999 RMK A01 T01151042  RH  033%=      5-min Rain = 0
KBR1 202334Z 23001KT 12/M04 A2999 RMK A01 T01151042  RH  033%=      5-min Rain = 0
KBR1 202335Z 22001KT 11/M04 A2999 RMK A01 T01141043  RH  033%=      5-min Rain = 0
KBR1 202336Z 21000KT 11/M04 A2999 RMK A01 T01141043  RH  033%=      5-min Rain = 0
KBR1 202337Z 00000KT 11/M04 A2999 RMK A01 T01131044  RH  033%=      5-min Rain = 0
KBR1 202338Z 00000KT 11/M04 A2999 RMK A01 T01131044  RH  033%=      5-min Rain = 0
KBR1 202339Z 00000KT 11/M04 A2999 RMK A01 T01131044  RH  033%=      5-min Rain = 0
KBR1 202340Z 00000KT 11/M04 A2999 RMK A01 T01131044  RH  033%=      5-min Rain = 0
KBR1 202341Z 00000KT 11/M04 A2999 RMK A01 T01131044  RH  033%=      5-min Rain = 0
KBR1 202342Z 22000KT 11/M04 A2999 RMK A01 T01131044  RH  033%=      5-min Rain = 0
KBR1 202343Z 22001KT 11/M04 A2999 RMK A01 T01131044  RH  033%=      5-min Rain = 0
KBR1 202344Z 22001KT 11/M04 A2999 RMK A01 T01121044  RH  033%=      5-min Rain = 0
KBR1 202345Z 22000KT 11/M04 A2999 RMK A01 T01121044  RH  033%=      5-min Rain = 0
KBR1 202346Z 22001KT 11/M04 A2998 RMK A01 T01121044  RH  033%=      5-min Rain = 0
KBR1 202347Z 22001KT 11/M04 A2998 RMK A01 T01121044  RH  033%=      5-min Rain = 0
KBR1 202348Z 22000KT 11/M04 A2998 RMK A01 T01121044  RH  033%=      5-min Rain = 0
KBR1 202349Z 22000KT 11/M04 A2998 RMK A01 T01111044  RH  033%=      5-min Rain = 0
KBR1 202350Z 22000KT 11/M04 A2998 RMK A01 T01111044  RH  033%=      5-min Rain = 0
KBR1 202351Z 22000KT 11/M04 A2998 RMK A01 T01111044  RH  033%=      5-min Rain = 0
KBR1 202352Z 00000KT 11/M04 A2998 RMK A01 T01111044  RH  033%=      5-min Rain = 0
KBR1 202353Z 00000KT 11/M05 A2998 RMK A01 T01101045  RH  033%=      5-min Rain = 0
KBR1 202354Z 20000KT 11/M04 A2998 RMK A01 T01101044  RH  034%=      5-min Rain = 0
KBR1 202355Z 00000KT 11/M04 A2998 RMK A01 T01101044  RH  034%=      5-min Rain = 0
KBR1 202356Z 00000KT 11/M04 A2998 RMK A01 T01101044  RH  034%=      5-min Rain = 0
KBR1 202357Z 00000KT 11/M05 A2998 RMK A01 T01091045  RH  034%=      5-min Rain = 0
KBR1 202358Z 00000KT 11/M05 A2998 RMK A01 T01091045  RH  034%=      5-min Rain = 0
KBR1 202359Z 00000KT 11/M04 A2998 RMK A01 T01101044  RH  034%=      5-min Rain = 0
KBR1 210000Z 00000KT 11/M04 A2998 RMK A01 T01091044  RH  034%=      5-min Rain = 0
KBR1 210001Z 00000KT 11/M04 A2998 RMK A01 T01091044  RH  034%=      5-min Rain = 0
KBR1 210002Z 00000KT 11/M04 A2998 RMK A01 T01091044  RH  034%=      5-min Rain = 0
KBR1 210003Z 00000KT 11/M04 A2998 RMK A01 T01081044  RH  034%=      5-min Rain = 0
KBR1 210004Z 00000KT 11/M04 A2998 RMK A01 T01081044  RH  034%=      5-min Rain = 0
KBR1 210005Z 00000KT 11/M04 A2998 RMK A01 T01081044  RH  034%=      5-min Rain = 0
KBR1 210006Z 00000KT 11/M04 A2998 RMK A01 T01071044  RH  034%=      5-min Rain = 0
KBR1 210007Z 00000KT 11/M04 A2998 RMK A01 T01061044  RH  034%=      5-min Rain = 0
KBR1 210008Z 15000KT 11/M04 A2998 RMK A01 T01051044  RH  035%=      5-min Rain = 0
KBR1 210009Z 00000KT 10/M05 A2998 RMK A01 T01041045  RH  035%=      5-min Rain = 0
KBR1 210010Z 00000KT 10/M04 A2998 RMK A01 T01041044  RH  035%=      5-min Rain = 0
KBR1 210011Z 00000KT 10/M05 A2998 RMK A01 T01031045  RH  035%=      5-min Rain = 0
KBR1 210012Z 00000KT 10/M05 A2998 RMK A01 T01031045  RH  035%=      5-min Rain = 0
KBR1 210013Z 00000KT 10/M05 A2998 RMK A01 T01031045  RH  035%=      5-min Rain = 0
KBR1 210014Z 00000KT 10/M05 A2998 RMK A01 T01021045  RH  035%=      5-min Rain = 0
KBR1 210015Z 00000KT 10/M05 A2998 RMK A01 T01021045  RH  035%=      5-min Rain = 0
KBR1 210016Z 00000KT 10/M05 A2998 RMK A01 T01001045  RH  036%=      5-min Rain = 0
KBR1 210017Z 00000KT 10/M05 A2998 RMK A01 T00991046  RH  036%=      5-min Rain = 0
KBR1 210018Z 00000KT 10/M05 A2998 RMK A01 T00991046  RH  036%=      5-min Rain = 0
KBR1 210019Z 00000KT 10/M05 A2998 RMK A01 T01001046  RH  036%=      5-min Rain = 0
KBR1 210020Z 00000KT 10/M05 A2997 RMK A01 T01001046  RH  035%=      5-min Rain = 0
KBR1 210021Z 00000KT 10/M05 A2997 RMK A01 T01021045  RH  035%=      5-min Rain = 0
KBR1 210022Z 00000KT 10/M05 A2997 RMK A01 T01031046  RH  035%=      5-min Rain = 0
KBR1 210023Z 00000KT 10/M05 A2997 RMK A01 T01031046  RH  035%=      5-min Rain = 0
KBR1 210024Z 15001KT 10/M05 A2997 RMK A01 T01041046  RH  035%=      5-min Rain = 0
KBR1 210025Z 15001KT 10/M05 A2997 RMK A01 T01041047  RH  034%=      5-min Rain = 0
KBR1 210026Z 15002KT 11/M05 A2997 RMK A01 T01051047  RH  034%=      5-min Rain = 0
KBR1 210027Z 15002KT 10/M05 A2997 RMK A01 T01041047  RH  034%=      5-min Rain = 0
KBR1 210028Z 15002KT 10/M05 A2997 RMK A01 T01031046  RH  035%=      5-min Rain = 0
KBR1 210029Z 14002KT 10/M05 A2997 RMK A01 T01001045  RH  036%=      5-min Rain = 0
KBR1 210030Z 14002KT 10/M05 A2997 RMK A01 T00971045  RH  037%=      5-min Rain = 0
KBR1 210031Z 14002KT 10/M04 A2997 RMK A01 T00951044  RH  037%=      5-min Rain = 0
KBR1 210032Z 14002KT 10/M04 A2997 RMK A01 T00951044  RH  037%=      5-min Rain = 0
KBR1 210033Z 14002KT 10/M04 A2997 RMK A01 T00971044  RH  037%=      5-min Rain = 0
KBR1 210034Z 14002KT 10/M04 A2997 RMK A01 T00981044  RH  036%=      5-min Rain = 0
KBR1 210035Z 15002KT 10/M04 A2997 RMK A01 T00991044  RH  036%=      5-min Rain = 0
KBR1 210036Z 15002KT 10/M04 A2997 RMK A01 T01001044  RH  036%=      5-min Rain = 0
KBR1 210037Z 15002KT 10/M04 A2997 RMK A01 T01011044  RH  036%=      5-min Rain = 0
KBR1 210038Z 15002KT 10/M04 A2997 RMK A01 T01021044  RH  036%=      5-min Rain = 0
KBR1 210039Z 16001KT 10/M04 A2997 RMK A01 T01031044  RH  035%=      5-min Rain = 0
KBR1 210040Z 16001KT 10/M04 A2997 RMK A01 T01011041  RH  037%=      5-min Rain = 0
KBR1 210041Z 16000KT 10/M04 A2997 RMK A01 T00961041  RH  038%=      5-min Rain = 0
KBR1 210042Z 16000KT 09/M04 A2998 RMK A01 T00911040  RH  039%=      5-min Rain = 0
KBR1 210043Z 16000KT 08/M04 A2998 RMK A01 T00831041  RH  041%=      5-min Rain = 0
KBR1 210044Z 00000KT 08/M04 A2998 RMK A01 T00791043  RH  042%=      5-min Rain = 0
KBR1 210045Z 00000KT 08/M04 A2998 RMK A01 T00791043  RH  042%=      5-min Rain = 0
KBR1 210046Z 00000KT 08/M04 A2998 RMK A01 T00831043  RH  041%=      5-min Rain = 0
KBR1 210047Z 00000KT 09/M04 A2998 RMK A01 T00851043  RH  040%=      5-min Rain = 0
KBR1 210048Z 00000KT 09/M04 A2998 RMK A01 T00851043  RH  040%=      5-min Rain = 0
KBR1 210049Z 16001KT 09/M04 A2997 RMK A01 T00861043  RH  040%=      5-min Rain = 0
KBR1 210050Z 14001KT 09/M04 A2997 RMK A01 T00881043  RH  040%=      5-min Rain = 0
KBR1 210051Z 11003KT 09/M04 A2997 RMK A01 T00871042  RH  040%=      5-min Rain = 0
KBR1 210052Z 11003KT 09/M04 A2997 RMK A01 T00851041  RH  041%=      5-min Rain = 0
KBR1 210053Z 11003KT 08/M04 A2997 RMK A01 T00821040  RH  042%=      5-min Rain = 0
KBR1 210054Z 11003KT 08/M04 A2997 RMK A01 T00801038  RH  043%=      5-min Rain = 0
KBR1 210055Z 11003KT 08/M04 A2997 RMK A01 T00801038  RH  043%=      5-min Rain = 0
KBR1 210056Z 12003KT 08/M04 A2997 RMK A01 T00791037  RH  043%=      5-min Rain = 0
KBR1 210057Z 11003KT 08/M04 A2997 RMK A01 T00801038  RH  043%=      5-min Rain = 0
KBR1 210058Z 11003KT 08/M04 A2997 RMK A01 T00811038  RH  043%=      5-min Rain = 0
KBR1 210059Z 10003KT 08/M04 A2997 RMK A01 T00821037  RH  043%=      5-min Rain = 0
KBR1 210100Z 10004KT 08/M03 A2997 RMK A01 T00771034  RH  045%=      5-min Rain = 0
KBR1 210101Z 10004KT 07/M04 A2997 RMK A01 T00681036  RH  048%=      5-min Rain = 0
KBR1 210102Z 10004KT 06/M04 A2997 RMK A01 T00631036  RH  049%=      5-min Rain = 0
KBR1 210103Z 10004KT 06/M04 A2997 RMK A01 T00601036  RH  050%=      5-min Rain = 0
KBR1 210104Z 09004KT 06/M04 A2997 RMK A01 T00591036  RH  050%=      5-min Rain = 0
KBR1 210105Z 09004KT 06/M04 A2997 RMK A01 T00591037  RH  050%=      5-min Rain = 0
KBR1 210106Z 10004KT 06/M04 A2997 RMK A01 T00601037  RH  050%=      5-min Rain = 0
KBR1 210107Z 09004KT 06/M04 A2997 RMK A01 T00631037  RH  049%=      5-min Rain = 0
KBR1 210108Z 09005KT 07/M04 A2997 RMK A01 T00681036  RH  048%=      5-min Rain = 0
KBR1 210109Z 10005KT 07/M04 A2997 RMK A01 T00701035  RH  047%=      5-min Rain = 0
KBR1 210110Z 10005KT 07/M04 A2997 RMK A01 T00721035  RH  046%=      5-min Rain = 0
KBR1 210111Z 10005KT 07/M04 A2997 RMK A01 T00731035  RH  046%=      5-min Rain = 0
KBR1 210112Z 10004KT 08/M04 A2997 RMK A01 T00751036  RH  045%=      5-min Rain = 0
KBR1 210113Z 10004KT 08/M04 A2997 RMK A01 T00771036  RH  045%=      5-min Rain = 0
KBR1 210114Z 10004KT 08/M04 A2997 RMK A01 T00781036  RH  044%=      5-min Rain = 0
KBR1 210115Z 09004KT 08/M04 A2997 RMK A01 T00791037  RH  044%=      5-min Rain = 0
KBR1 210116Z 10004KT 08/M04 A2997 RMK A01 T00811037  RH  043%=      5-min Rain = 0
KBR1 210117Z 10004KT 08/M04 A2996 RMK A01 T00821037  RH  043%=      5-min Rain = 0
KBR1 210118Z 10004KT 08/M04 A2996 RMK A01 T00831038  RH  042%=      5-min Rain = 0
KBR1 210119Z 10004KT 08/M04 A2996 RMK A01 T00841039  RH  042%=      5-min Rain = 0
KBR1 210120Z 11004KT 08/M04 A2996 RMK A01 T00841039  RH  041%=      5-min Rain = 0
KBR1 210121Z 11003KT 08/M04 A2996 RMK A01 T00841039  RH  041%=      5-min Rain = 0
KBR1 210122Z 11004KT 08/M04 A2996 RMK A01 T00841038  RH  042%=      5-min Rain = 0
KBR1 210123Z 11004KT 08/M04 A2996 RMK A01 T00801035  RH  044%=      5-min Rain = 0
KBR1 210124Z 11004KT 07/M04 A2996 RMK A01 T00731035  RH  046%=      5-min Rain = 0
KBR1 210125Z 11004KT 07/M04 A2996 RMK A01 T00691036  RH  047%=      5-min Rain = 0
KBR1 210126Z 11004KT 07/M04 A2996 RMK A01 T00701037  RH  047%=      5-min Rain = 0
KBR1 210127Z 11004KT 07/M04 A2996 RMK A01 T00741037  RH  045%=      5-min Rain = 0
KBR1 210128Z 11004KT 08/M04 A2996 RMK A01 T00791037  RH  044%=      5-min Rain = 0
KBR1 210129Z 11004KT 08/M04 A2996 RMK A01 T00821037  RH  043%=      5-min Rain = 0
KBR1 210130Z 11004KT 08/M04 A2996 RMK A01 T00831038  RH  042%=      5-min Rain = 0
KBR1 210131Z 11004KT 08/M04 A2996 RMK A01 T00831038  RH  042%=      5-min Rain = 0
KBR1 210132Z 11004KT 08/M04 A2996 RMK A01 T00811036  RH  043%=      5-min Rain = 0
KBR1 210133Z 11004KT 08/M04 A2996 RMK A01 T00751037  RH  045%=      5-min Rain = 0
KBR1 210134Z 11004KT 07/M04 A2996 RMK A01 T00721039  RH  045%=      5-min Rain = 0
KBR1 210135Z 11004KT 07/M04 A2996 RMK A01 T00711039  RH  046%=      5-min Rain = 0
KBR1 210136Z 11004KT 07/M04 A2996 RMK A01 T00681039  RH  046%=      5-min Rain = 0
KBR1 210137Z 11004KT 07/M04 A2996 RMK A01 T00661038  RH  047%=      5-min Rain = 0
KBR1 210138Z 11004KT 07/M04 A2996 RMK A01 T00651039  RH  048%=      5-min Rain = 0
KBR1 210139Z 11004KT 06/M04 A2996 RMK A01 T00641039  RH  048%=      5-min Rain = 0
KBR1 210140Z 11004KT 07/M04 A2996 RMK A01 T00651039  RH  047%=      5-min Rain = 0
KBR1 210141Z 11004KT 07/M04 A2996 RMK A01 T00651039  RH  047%=      5-min Rain = 0
KBR1 210142Z 11004KT 07/M04 A2996 RMK A01 T00651039  RH  047%=      5-min Rain = 0
KBR1 210143Z 11004KT 06/M04 A2996 RMK A01 T00641038  RH  048%=      5-min Rain = 0
KBR1 210144Z 12004KT 06/M04 A2996 RMK A01 T00631039  RH  048%=      5-min Rain = 0
KBR1 210145Z 12004KT 07/M04 A2996 RMK A01 T00691039  RH  046%=      5-min Rain = 0
KBR1 210146Z 11004KT 08/M04 A2996 RMK A01 T00791038  RH  043%=      5-min Rain = 0
KBR1 210147Z 11004KT 09/M04 A2996 RMK A01 T00871039  RH  041%=      5-min Rain = 0
KBR1 210148Z 11004KT 09/M04 A2996 RMK A01 T00901040  RH  040%=      5-min Rain = 0
KBR1 210149Z 11004KT 09/M04 A2996 RMK A01 T00881037  RH  041%=      5-min Rain = 0
KBR1 210150Z 11004KT 08/M04 A2996 RMK A01 T00811038  RH  043%=      5-min Rain = 0
KBR1 210151Z 11004KT 08/M04 A2996 RMK A01 T00761039  RH  044%=      5-min Rain = 0
KBR1 210152Z 11004KT 07/M04 A2996 RMK A01 T00741039  RH  044%=      5-min Rain = 0
KBR1 210153Z 11004KT 08/M04 A2996 RMK A01 T00751040  RH  044%=      5-min Rain = 0
KBR1 210154Z 11004KT 08/M04 A2996 RMK A01 T00791040  RH  043%=      5-min Rain = 0
KBR1 210155Z 11004KT 08/M04 A2996 RMK A01 T00831040  RH  041%=      5-min Rain = 0
KBR1 210156Z 11004KT 09/M04 A2996 RMK A01 T00861040  RH  041%=      5-min Rain = 0
KBR1 210157Z 10004KT 09/M04 A2996 RMK A01 T00871040  RH  040%=      5-min Rain = 0
KBR1 210158Z 10004KT 09/M04 A2996 RMK A01 T00861039  RH  041%=      5-min Rain = 0
KBR1 210159Z 10004KT 08/M04 A2996 RMK A01 T00811039  RH  043%=      5-min Rain = 0
KBR1 210200Z 10004KT 08/M04 A2996 RMK A01 T00761041  RH  043%=      5-min Rain = 0
KBR1 210201Z 10004KT 07/M04 A2996 RMK A01 T00731040  RH  044%=      5-min Rain = 0
KBR1 210202Z 09003KT 07/M04 A2996 RMK A01 T00681041  RH  046%=      5-min Rain = 0
KBR1 210203Z 09003KT 06/M04 A2996 RMK A01 T00611041  RH  048%=      5-min Rain = 0
KBR1 210204Z 09003KT 06/M04 A2996 RMK A01 T00581041  RH  049%=      5-min Rain = 0
KBR1 210205Z 09004KT 06/M04 A2996 RMK A01 T00571041  RH  049%=      5-min Rain = 0
KBR1 210206Z 10004KT 06/M04 A2996 RMK A01 T00581040  RH  049%=      5-min Rain = 0
KBR1 210207Z 10004KT 06/M04 A2995 RMK A01 T00601040  RH  048%=      5-min Rain = 0
KBR1 210208Z 09004KT 06/M04 A2995 RMK A01 T00641040  RH  047%=      5-min Rain = 0
KBR1 210209Z 08004KT 07/M04 A2995 RMK A01 T00681041  RH  046%=      5-min Rain = 0
KBR1 210210Z 07004KT 07/M04 A2995 RMK A01 T00701041  RH  045%=      5-min Rain = 0
KBR1 210211Z 06004KT 07/M04 A2995 RMK A01 T00671042  RH  046%=      5-min Rain = 0
KBR1 210212Z 07004KT 06/M04 A2995 RMK A01 T00641042  RH  047%=      5-min Rain = 0
KBR1 210213Z 07004KT 06/M04 A2995 RMK A01 T00611042  RH  048%=      5-min Rain = 0
KBR1 210214Z 08004KT 06/M04 A2995 RMK A01 T00601042  RH  048%=      5-min Rain = 0
KBR1 210215Z 08004KT 06/M04 A2995 RMK A01 T00601042  RH  048%=      5-min Rain = 0
KBR1 210216Z 09004KT 06/M04 A2995 RMK A01 T00601042  RH  048%=      5-min Rain = 0
KBR1 210217Z 09005KT 06/M04 A2995 RMK A01 T00611041  RH  048%=      5-min Rain = 0
KBR1 210218Z 09004KT 06/M04 A2995 RMK A01 T00621040  RH  048%=      5-min Rain = 0
KBR1 210219Z 09005KT 06/M04 A2995 RMK A01 T00631039  RH  048%=      5-min Rain = 0
KBR1 210220Z 08004KT 06/M04 A2995 RMK A01 T00641039  RH  047%=      5-min Rain = 0
KBR1 210221Z 07004KT 06/M04 A2995 RMK A01 T00641039  RH  048%=      5-min Rain = 0
KBR1 210222Z 08004KT 06/M04 A2995 RMK A01 T00601040  RH  048%=      5-min Rain = 0
KBR1 210223Z 09005KT 06/M04 A2995 RMK A01 T00571040  RH  050%=      5-min Rain = 0
KBR1 210224Z 09005KT 06/M04 A2995 RMK A01 T00561039  RH  050%=      5-min Rain = 0
KBR1 210225Z 10005KT 06/M04 A2995 RMK A01 T00561039  RH  050%=      5-min Rain = 0
KBR1 210226Z 10005KT 06/M04 A2995 RMK A01 T00561040  RH  050%=      5-min Rain = 0
KBR1 210227Z 10005KT 06/M04 A2995 RMK A01 T00571039  RH  050%=      5-min Rain = 0
KBR1 210228Z 10005KT 06/M04 A2995 RMK A01 T00581039  RH  050%=      5-min Rain = 0
KBR1 210229Z 10004KT 06/M04 A2995 RMK A01 T00581039  RH  050%=      5-min Rain = 0
KBR1 210230Z 09003KT 06/M04 A2995 RMK A01 T00571039  RH  050%=      5-min Rain = 0
KBR1 210231Z 09003KT 06/M04 A2994 RMK A01 T00561038  RH  051%=      5-min Rain = 0
KBR1 210232Z 08003KT 05/M04 A2994 RMK A01 T00531036  RH  053%=      5-min Rain = 0
KBR1 210233Z 07003KT 05/M03 A2994 RMK A01 T00501034  RH  054%=      5-min Rain = 0
KBR1 210234Z 07003KT 05/M04 A2994 RMK A01 T00501036  RH  054%=      5-min Rain = 0
KBR1 210235Z 07003KT 05/M04 A2994 RMK A01 T00501037  RH  054%=      5-min Rain = 0
KBR1 210236Z 06003KT 05/M04 A2994 RMK A01 T00501037  RH  053%=      5-min Rain = 0
KBR1 210237Z 05002KT 05/M04 A2994 RMK A01 T00511037  RH  053%=      5-min Rain = 0
KBR1 210238Z 02002KT 05/M04 A2994 RMK A01 T00521035  RH  053%=      5-min Rain = 0
KBR1 210239Z 01002KT 05/M03 A2994 RMK A01 T00521034  RH  054%=      5-min Rain = 0
KBR1 210240Z 00002KT 05/M03 A2994 RMK A01 T00511034  RH  054%=      5-min Rain = 0
KBR1 210241Z 00002KT 05/M03 A2994 RMK A01 T00501034  RH  054%=      5-min Rain = 0
KBR1 210242Z 36003KT 05/M04 A2994 RMK A01 T00491035  RH  054%=      5-min Rain = 0
KBR1 210243Z 35003KT 05/M04 A2994 RMK A01 T00471035  RH  055%=      5-min Rain = 0
KBR1 210244Z 36003KT 05/M03 A2994 RMK A01 T00451034  RH  057%=      5-min Rain = 0
KBR1 210245Z 01002KT 04/M03 A2994 RMK A01 T00431032  RH  058%=      5-min Rain = 0
KBR1 210246Z 00002KT 04/M03 A2994 RMK A01 T00401031  RH  060%=      5-min Rain = 0
KBR1 210247Z 00003KT 04/M03 A2994 RMK A01 T00401033  RH  059%=      5-min Rain = 0
KBR1 210248Z 00003KT 04/M04 A2994 RMK A01 T00391035  RH  059%=      5-min Rain = 0
KBR1 210249Z 00003KT 04/M04 A2994 RMK A01 T00381035  RH  059%=      5-min Rain = 0
KBR1 210250Z 00003KT 04/M03 A2994 RMK A01 T00371034  RH  060%=      5-min Rain = 0
KBR1 210251Z 35004KT 03/M03 A2994 RMK A01 T00341034  RH  061%=      5-min Rain = 0
KBR1 210252Z 35004KT 03/M03 A2994 RMK A01 T00331033  RH  062%=      5-min Rain = 0
KBR1 210253Z 35004KT 03/M03 A2994 RMK A01 T00321033  RH  062%=      5-min Rain = 0
KBR1 210254Z 35004KT 03/M03 A2994 RMK A01 T00321034  RH  062%=      5-min Rain = 0
KBR1 210255Z 35004KT 03/M04 A2994 RMK A01 T00321035  RH  061%=      5-min Rain = 0
KBR1 210256Z 36003KT 03/M04 A2994 RMK A01 T00321035  RH  061%=      5-min Rain = 0
KBR1 210257Z 35003KT 03/M04 A2994 RMK A01 T00331035  RH  061%=      5-min Rain = 0
KBR1 210258Z 35003KT 03/M04 A2994 RMK A01 T00321035  RH  062%=      5-min Rain = 0
KBR1 210259Z 36003KT 03/M04 A2994 RMK A01 T00311035  RH  062%=      5-min Rain = 0
KBR1 210300Z 35004KT 03/M04 A2994 RMK A01 T00311035  RH  062%=      5-min Rain = 0
KBR1 210301Z 35004KT 03/M04 A2994 RMK A01 T00301035  RH  062%=      5-min Rain = 0
KBR1 210302Z 35005KT 03/M04 A2994 RMK A01 T00301036  RH  062%=      5-min Rain = 0
KBR1 210303Z 35005KT 03/M04 A2994 RMK A01 T00311037  RH  061%=      5-min Rain = 0
KBR1 210304Z 35004KT 03/M04 A2994 RMK A01 T00321037  RH  061%=      5-min Rain = 0
KBR1 210305Z 34004KT 03/M04 A2994 RMK A01 T00321037  RH  061%=      5-min Rain = 0
KBR1 210306Z 34004KT 03/M04 A2994 RMK A01 T00321037  RH  060%=      5-min Rain = 0
KBR1 210307Z 35004KT 03/M04 A2994 RMK A01 T00341037  RH  060%=      5-min Rain = 0
KBR1 210308Z 35004KT 04/M04 A2994 RMK A01 T00351037  RH  059%=      5-min Rain = 0
KBR1 210309Z 35004KT 04/M04 A2994 RMK A01 T00351037  RH  059%=      5-min Rain = 0
KBR1 210310Z 36004KT 04/M04 A2994 RMK A01 T00361037  RH  059%=      5-min Rain = 0
KBR1 210311Z 36004KT 04/M04 A2994 RMK A01 T00361037  RH  058%=      5-min Rain = 0
KBR1 210312Z 00005KT 04/M04 A2994 RMK A01 T00361038  RH  059%=      5-min Rain = 0
KBR1 210313Z 35004KT 04/M04 A2994 RMK A01 T00351038  RH  059%=      5-min Rain = 0
KBR1 210314Z 35004KT 04/M04 A2994 RMK A01 T00351038  RH  059%=      5-min Rain = 0
KBR1 210315Z 35005KT 04/M04 A2994 RMK A01 T00351038  RH  059%=      5-min Rain = 0
KBR1 210316Z 36005KT 04/M04 A2993 RMK A01 T00351038  RH  059%=      5-min Rain = 0
KBR1 210317Z 01005KT 04/M04 A2993 RMK A01 T00351038  RH  059%=      5-min Rain = 0
KBR1 210318Z 01005KT 04/M04 A2993 RMK A01 T00351038  RH  059%=      5-min Rain = 0
KBR1 210319Z 00003KT 03/M04 A2993 RMK A01 T00341037  RH  060%=      5-min Rain = 0
KBR1 210320Z 36003KT 03/M04 A2993 RMK A01 T00321037  RH  060%=      5-min Rain = 0
KBR1 210321Z 35002KT 03/M04 A2993 RMK A01 T00321037  RH  060%=      5-min Rain = 0
KBR1 210322Z 36003KT 03/M04 A2993 RMK A01 T00301036  RH  062%=      5-min Rain = 0
KBR1 210323Z 01004KT 03/M04 A2993 RMK A01 T00291037  RH  062%=      5-min Rain = 0
KBR1 210324Z 01004KT 03/M04 A2993 RMK A01 T00301039  RH  060%=      5-min Rain = 0
KBR1 210325Z 01004KT 03/M04 A2993 RMK A01 T00321038  RH  060%=      5-min Rain = 0
KBR1 210326Z 01003KT 03/M04 A2994 RMK A01 T00331039  RH  059%=      5-min Rain = 0
KBR1 210327Z 00003KT 03/M04 A2994 RMK A01 T00341039  RH  059%=      5-min Rain = 0
KBR1 210328Z 00003KT 04/M04 A2994 RMK A01 T00361039  RH  058%=      5-min Rain = 0
KBR1 210329Z 00002KT 04/M04 A2994 RMK A01 T00381037  RH  058%=      5-min Rain = 0
KBR1 210330Z 36002KT 03/M04 A2993 RMK A01 T00341038  RH  059%=      5-min Rain = 0
KBR1 210331Z 35003KT 03/M04 A2993 RMK A01 T00331038  RH  060%=      5-min Rain = 0
KBR1 210332Z 34003KT 03/M04 A2993 RMK A01 T00321038  RH  060%=      5-min Rain = 0
KBR1 210333Z 31002KT 03/M04 A2993 RMK A01 T00331039  RH  059%=      5-min Rain = 0
KBR1 210334Z 33002KT 03/M04 A2993 RMK A01 T00341039  RH  059%=      5-min Rain = 0
KBR1 210335Z 35002KT 03/M04 A2993 RMK A01 T00341038  RH  059%=      5-min Rain = 0
KBR1 210336Z 01002KT 04/M04 A2993 RMK A01 T00351038  RH  059%=      5-min Rain = 0
KBR1 210337Z 02002KT 04/M04 A2993 RMK A01 T00371038  RH  058%=      5-min Rain = 0
KBR1 210338Z 01002KT 04/M04 A2993 RMK A01 T00391037  RH  057%=      5-min Rain = 0
KBR1 210339Z 35002KT 04/M04 A2993 RMK A01 T00381036  RH  058%=      5-min Rain = 0
KBR1 210340Z 34002KT 03/M04 A2993 RMK A01 T00341037  RH  060%=      5-min Rain = 0
KBR1 210341Z 35002KT 03/M04 A2993 RMK A01 T00321037  RH  060%=      5-min Rain = 0
KBR1 210342Z 00003KT 03/M04 A2993 RMK A01 T00311037  RH  061%=      5-min Rain = 0
KBR1 210343Z 35003KT 03/M04 A2993 RMK A01 T00311038  RH  060%=      5-min Rain = 0
KBR1 210344Z 34003KT 03/M04 A2993 RMK A01 T00321039  RH  060%=      5-min Rain = 0
KBR1 210345Z 34003KT 03/M04 A2993 RMK A01 T00321039  RH  060%=      5-min Rain = 0
KBR1 210346Z 34003KT 03/M04 A2993 RMK A01 T00321039  RH  059%=      5-min Rain = 0
KBR1 210347Z 33003KT 03/M04 A2993 RMK A01 T00331039  RH  059%=      5-min Rain = 0
KBR1 210348Z 33003KT 03/M04 A2993 RMK A01 T00321039  RH  059%=      5-min Rain = 0
KBR1 210349Z 32003KT 03/M04 A2993 RMK A01 T00331039  RH  059%=      5-min Rain = 0
KBR1 210350Z 32003KT 03/M04 A2993 RMK A01 T00331039  RH  059%=      5-min Rain = 0
KBR1 210351Z 32003KT 03/M04 A2993 RMK A01 T00321039  RH  060%=      5-min Rain = 0
KBR1 210352Z 32002KT 03/M04 A2993 RMK A01 T00321038  RH  060%=      5-min Rain = 0
KBR1 210353Z 32002KT 03/M04 A2993 RMK A01 T00321038  RH  060%=      5-min Rain = 0
KBR1 210354Z 32002KT 03/M04 A2993 RMK A01 T00311038  RH  060%=      5-min Rain = 0
KBR1 210355Z 32002KT 03/M04 A2993 RMK A01 T00311038  RH  060%=      5-min Rain = 0
KBR1 210356Z 32001KT 03/M04 A2993 RMK A01 T00311039  RH  060%=      5-min Rain = 0
KBR1 210357Z 33002KT 03/M04 A2993 RMK A01 T00311040  RH  060%=      5-min Rain = 0
KBR1 210358Z 35002KT 03/M04 A2993 RMK A01 T00321040  RH  059%=      5-min Rain = 0
KBR1 210359Z 35003KT 03/M04 A2993 RMK A01 T00321041  RH  059%=      5-min Rain = 0
KBR1 210400Z 35002KT 03/M04 A2993 RMK A01 T00321041  RH  059%=      5-min Rain = 0
KBR1 210401Z 35001KT 03/M04 A2993 RMK A01 T00321041  RH  059%=      5-min Rain = 0
KBR1 210402Z 35001KT 03/M04 A2993 RMK A01 T00321040  RH  059%=      5-min Rain = 0
KBR1 210403Z 35001KT 03/M04 A2993 RMK A01 T00321041  RH  059%=      5-min Rain = 0
KBR1 210404Z 35001KT 04/M04 A2993 RMK A01 T00361039  RH  058%=      5-min Rain = 0
KBR1 210405Z 35001KT 04/M04 A2993 RMK A01 T00391040  RH  056%=      5-min Rain = 0
KBR1 210406Z 35001KT 04/M04 A2993 RMK A01 T00401040  RH  056%=      5-min Rain = 0
KBR1 210407Z 35001KT 04/M04 A2993 RMK A01 T00381042  RH  056%=      5-min Rain = 0
KBR1 210408Z 03001KT 04/M04 A2993 RMK A01 T00361042  RH  057%=      5-min Rain = 0
KBR1 210409Z 03001KT 03/M04 A2993 RMK A01 T00341041  RH  058%=      5-min Rain = 0
KBR1 210410Z 03001KT 03/M04 A2992 RMK A01 T00331040  RH  059%=      5-min Rain = 0
KBR1 210411Z 03001KT 03/M04 A2992 RMK A01 T00331040  RH  059%=      5-min Rain = 0
KBR1 210412Z 02001KT 03/M04 A2992 RMK A01 T00341040  RH  058%=      5-min Rain = 0
KBR1 210413Z 01002KT 04/M04 A2992 RMK A01 T00351041  RH  058%=      5-min Rain = 0
KBR1 210414Z 01002KT 04/M04 A2992 RMK A01 T00361041  RH  057%=      5-min Rain = 0
KBR1 210415Z 01002KT 04/M04 A2992 RMK A01 T00381040  RH  057%=      5-min Rain = 0
KBR1 210416Z 01002KT 04/M04 A2992 RMK A01 T00391040  RH  056%=      5-min Rain = 0
KBR1 210417Z 00002KT 04/M04 A2992 RMK A01 T00371041  RH  057%=      5-min Rain = 0
KBR1 210418Z 00002KT 04/M04 A2992 RMK A01 T00351041  RH  058%=      5-min Rain = 0
KBR1 210419Z 35002KT 04/M04 A2992 RMK A01 T00351041  RH  058%=      5-min Rain = 0
KBR1 210420Z 34002KT 04/M04 A2992 RMK A01 T00351040  RH  058%=      5-min Rain = 0
KBR1 210421Z 34002KT 04/M04 A2992 RMK A01 T00351040  RH  058%=      5-min Rain = 0
KBR1 210422Z 34002KT 03/M04 A2992 RMK A01 T00341040  RH  058%=      5-min Rain = 0
KBR1 210423Z 34002KT 03/M04 A2992 RMK A01 T00341040  RH  059%=      5-min Rain = 0
KBR1 210424Z 35001KT 03/M04 A2992 RMK A01 T00321040  RH  059%=      5-min Rain = 0
KBR1 210425Z 35001KT 03/M04 A2992 RMK A01 T00311040  RH  060%=      5-min Rain = 0
KBR1 210426Z 35001KT 03/M04 A2992 RMK A01 T00301040  RH  060%=      5-min Rain = 0
KBR1 210427Z 35001KT 03/M04 A2993 RMK A01 T00291040  RH  061%=      5-min Rain = 0
KBR1 210428Z 00001KT 03/M04 A2993 RMK A01 T00271040  RH  061%=      5-min Rain = 0
KBR1 210429Z 02001KT 03/M04 A2993 RMK A01 T00261039  RH  062%=      5-min Rain = 0
KBR1 210430Z 02000KT 03/M04 A2992 RMK A01 T00261039  RH  062%=      5-min Rain = 0
KBR1 210431Z 02000KT 03/M04 A2993 RMK A01 T00281039  RH  061%=      5-min Rain = 0
KBR1 210432Z 02001KT 03/M04 A2992 RMK A01 T00301039  RH  061%=      5-min Rain = 0
KBR1 210433Z 02001KT 03/M04 A2992 RMK A01 T00331039  RH  060%=      5-min Rain = 0
KBR1 210434Z 02001KT 03/M04 A2992 RMK A01 T00341039  RH  059%=      5-min Rain = 0
KBR1 210435Z 02001KT 04/M04 A2992 RMK A01 T00361039  RH  058%=      5-min Rain = 0
KBR1 210436Z 02001KT 04/M04 A2992 RMK A01 T00371039  RH  058%=      5-min Rain = 0
KBR1 210437Z 02001KT 04/M04 A2992 RMK A01 T00371039  RH  057%=      5-min Rain = 0
KBR1 210438Z 01001KT 04/M04 A2992 RMK A01 T00391039  RH  057%=      5-min Rain = 0
KBR1 210439Z 00001KT 04/M04 A2992 RMK A01 T00391039  RH  057%=      5-min Rain = 0
KBR1 210440Z 35002KT 04/M04 A2992 RMK A01 T00381039  RH  057%=      5-min Rain = 0
KBR1 210441Z 35002KT 04/M04 A2992 RMK A01 T00361039  RH  058%=      5-min Rain = 0
KBR1 210442Z 34002KT 03/M04 A2992 RMK A01 T00341040  RH  059%=      5-min Rain = 0
KBR1 210443Z 34002KT 03/M04 A2992 RMK A01 T00311040  RH  060%=      5-min Rain = 0
KBR1 210444Z 34002KT 03/M04 A2992 RMK A01 T00281040  RH  061%=      5-min Rain = 0
KBR1 210445Z 33002KT 03/M04 A2992 RMK A01 T00261040  RH  062%=      5-min Rain = 0
KBR1 210446Z 33002KT 02/M04 A2992 RMK A01 T00241039  RH  063%=      5-min Rain = 0
KBR1 210447Z 33002KT 02/M04 A2992 RMK A01 T00231039  RH  064%=      5-min Rain = 0
KBR1 210448Z 33002KT 02/M04 A2992 RMK A01 T00221039  RH  064%=      5-min Rain = 0
KBR1 210449Z 34002KT 02/M04 A2992 RMK A01 T00211039  RH  065%=      5-min Rain = 0
KBR1 210450Z 34002KT 02/M04 A2992 RMK A01 T00191039  RH  066%=      5-min Rain = 0
KBR1 210451Z 35002KT 02/M04 A2992 RMK A01 T00181039  RH  066%=      5-min Rain = 0
KBR1 210452Z 35001KT 02/M04 A2992 RMK A01 T00171039  RH  066%=      5-min Rain = 0
KBR1 210453Z 35000KT 02/M04 A2992 RMK A01 T00171039  RH  066%=      5-min Rain = 0
KBR1 210454Z 00000KT 02/M04 A2992 RMK A01 T00171039  RH  066%=      5-min Rain = 0
KBR1 210455Z 00000KT 02/M04 A2992 RMK A01 T00181039  RH  066%=      5-min Rain = 0
KBR1 210456Z 00000KT 02/M04 A2992 RMK A01 T00211038  RH  065%=      5-min Rain = 0
KBR1 210457Z 00000KT 03/M04 A2992 RMK A01 T00261037  RH  063%=      5-min Rain = 0
KBR1 210458Z 21000KT 03/M04 A2992 RMK A01 T00301037  RH  062%=      5-min Rain = 0
KBR1 210459Z 21000KT 03/M04 A2992 RMK A01 T00331038  RH  060%=      5-min Rain = 0
KBR1 210500Z 22000KT 03/M04 A2992 RMK A01 T00341039  RH  059%=      5-min Rain = 0
KBR1 210501Z 25001KT 04/M04 A2992 RMK A01 T00361039  RH  058%=      5-min Rain = 0
KBR1 210502Z 26001KT 04/M04 A2992 RMK A01 T00371039  RH  057%=      5-min Rain = 0
KBR1 210503Z 27002KT 04/M04 A2992 RMK A01 T00371039  RH  057%=      5-min Rain = 0
KBR1 210504Z 28002KT 03/M04 A2992 RMK A01 T00331039  RH  059%=      5-min Rain = 0
KBR1 210505Z 29002KT 03/M04 A2992 RMK A01 T00261038  RH  062%=      5-min Rain = 0
KBR1 210506Z 28002KT 02/M04 A2992 RMK A01 T00211039  RH  064%=      5-min Rain = 0
KBR1 210507Z 29002KT 02/M04 A2992 RMK A01 T00171039  RH  066%=      5-min Rain = 0
KBR1 210508Z 28001KT 01/M04 A2992 RMK A01 T00141039  RH  068%=      5-min Rain = 0
KBR1 210509Z 28001KT 01/M04 A2992 RMK A01 T00121039  RH  069%=      5-min Rain = 0
KBR1 210510Z 27001KT 01/M04 A2992 RMK A01 T00121040  RH  068%=      5-min Rain = 0
KBR1 210511Z 29001KT 01/M04 A2992 RMK A01 T00131038  RH  069%=      5-min Rain = 0
KBR1 210512Z 29000KT 01/M04 A2992 RMK A01 T00121039  RH  069%=      5-min Rain = 0
KBR1 210513Z 29000KT 01/M04 A2991 RMK A01 T00121039  RH  069%=      5-min Rain = 0
KBR1 210514Z 29001KT 01/M04 A2991 RMK A01 T00121039  RH  069%=      5-min Rain = 0
KBR1 210515Z 27001KT 01/M04 A2991 RMK A01 T00131039  RH  068%=      5-min Rain = 0
KBR1 210516Z 28001KT 01/M04 A2991 RMK A01 T00141039  RH  068%=      5-min Rain = 0
KBR1 210517Z 26001KT 02/M04 A2991 RMK A01 T00161039  RH  067%=      5-min Rain = 0
KBR1 210518Z 22001KT 02/M04 A2991 RMK A01 T00191038  RH  066%=      5-min Rain = 0
KBR1 210519Z 23001KT 02/M04 A2991 RMK A01 T00221037  RH  065%=      5-min Rain = 0
KBR1 210520Z 21002KT 02/M04 A2991 RMK A01 T00241038  RH  064%=      5-min Rain = 0
KBR1 210521Z 22002KT 03/M04 A2991 RMK A01 T00261039  RH  063%=      5-min Rain = 0
KBR1 210522Z 23003KT 03/M04 A2991 RMK A01 T00271039  RH  062%=      5-min Rain = 0
KBR1 210523Z 23003KT 03/M04 A2991 RMK A01 T00281039  RH  061%=      5-min Rain = 0
KBR1 210524Z 24003KT 03/M04 A2991 RMK A01 T00291039  RH  061%=      5-min Rain = 0
KBR1 210525Z 23003KT 03/M04 A2991 RMK A01 T00311039  RH  060%=      5-min Rain = 0
KBR1 210526Z 23004KT 03/M04 A2991 RMK A01 T00321039  RH  060%=      5-min Rain = 0
KBR1 210527Z 23004KT 03/M04 A2991 RMK A01 T00331039  RH  059%=      5-min Rain = 0
KBR1 210528Z 23005KT 03/M04 A2991 RMK A01 T00331038  RH  059%=      5-min Rain = 0
KBR1 210529Z 23005KT 03/M04 A2991 RMK A01 T00331039  RH  059%=      5-min Rain = 0
KBR1 210530Z 22005KT 03/M04 A2991 RMK A01 T00331039  RH  059%=      5-min Rain = 0
KBR1 210531Z 23005KT 03/M04 A2991 RMK A01 T00331040  RH  059%=      5-min Rain = 0
KBR1 210532Z 23005KT 03/M04 A2991 RMK A01 T00331039  RH  059%=      5-min Rain = 0
KBR1 210533Z 23005KT 03/M04 A2991 RMK A01 T00311040  RH  059%=      5-min Rain = 0
KBR1 210534Z 23005KT 03/M04 A2991 RMK A01 T00301040  RH  060%=      5-min Rain = 0
KBR1 210535Z 22005KT 03/M04 A2991 RMK A01 T00281041  RH  061%=      5-min Rain = 0
KBR1 210536Z 22005KT 03/M04 A2991 RMK A01 T00281040  RH  061%=      5-min Rain = 0
KBR1 210537Z 22006KT 03/M04 A2991 RMK A01 T00281040  RH  061%=      5-min Rain = 0
KBR1 210538Z 22005KT 03/M04 A2991 RMK A01 T00271040  RH  061%=      5-min Rain = 0
KBR1 210539Z 22005KT 03/M04 A2991 RMK A01 T00261040  RH  062%=      5-min Rain = 0
KBR1 210540Z 22005KT 03/M04 A2991 RMK A01 T00261040  RH  062%=      5-min Rain = 0
KBR1 210541Z 22005KT 02/M04 A2991 RMK A01 T00241040  RH  062%=      5-min Rain = 0
KBR1 210542Z 22005KT 02/M04 A2991 RMK A01 T00231040  RH  063%=      5-min Rain = 0
KBR1 210543Z 22005KT 02/M04 A2991 RMK A01 T00231040  RH  063%=      5-min Rain = 0
KBR1 210544Z 22005KT 02/M04 A2991 RMK A01 T00231039  RH  063%=      5-min Rain = 0
KBR1 210545Z 22005KT 03/M04 A2991 RMK A01 T00251039  RH  063%=      5-min Rain = 0
KBR1 210546Z 22005KT 03/M04 A2991 RMK A01 T00261038  RH  063%=      5-min Rain = 0
KBR1 210547Z 22005KT 03/M04 A2991 RMK A01 T00261038  RH  063%=      5-min Rain = 0
KBR1 210548Z 22005KT 03/M04 A2991 RMK A01 T00261038  RH  063%=      5-min Rain = 0
KBR1 210549Z 22006KT 03/M04 A2991 RMK A01 T00251039  RH  063%=      5-min Rain = 0
KBR1 210550Z 22005KT 02/M04 A2991 RMK A01 T00241039  RH  063%=      5-min Rain = 0
KBR1 210551Z 22005KT 02/M04 A2991 RMK A01 T00231039  RH  063%=      5-min Rain = 0
KBR1 210552Z 23005KT 02/M04 A2991 RMK A01 T00221039  RH  064%=      5-min Rain = 0
KBR1 210553Z 23004KT 02/M04 A2991 RMK A01 T00211039  RH  064%=      5-min Rain = 0
KBR1 210554Z 24005KT 02/M04 A2991 RMK A01 T00201039  RH  065%=      5-min Rain = 0
KBR1 210555Z 24005KT 02/M04 A2991 RMK A01 T00201038  RH  065%=      5-min Rain = 0
KBR1 210556Z 24004KT 02/M04 A2991 RMK A01 T00191039  RH  065%=      5-min Rain = 0
KBR1 210557Z 24004KT 02/M04 A2991 RMK A01 T00201039  RH  065%=      5-min Rain = 0
KBR1 210558Z 24005KT 02/M04 A2991 RMK A01 T00211039  RH  065%=      5-min Rain = 0
KBR1 210559Z 24005KT 02/M04 A2991 RMK A01 T00211039  RH  064%=      5-min Rain = 0

Page generated in 0.0789 seconds.